IZ1UQG-2 Weather Reports


Display with metric or nautical units.
time (UTC)temp
F
wind
direction
speed
MPH
gust
MPH
rain 1hr
in
rain 24hr
in
rain mn
in
humidity
%
barometer
mb
20260509051804 53 270 1.0 4.0 0.00 0.00 0.00 81 1016.6
20260509051704 53 269 1.0 4.0 0.00 0.00 0.00 82 1016.7
20260509051604 53 268 1.0 4.0 0.00 0.00 0.00 82 1016.6
20260509051504 53 270 1.0 4.0 0.00 0.00 0.00 82 1016.6
20260509051404 53 272 1.0 4.0 0.00 0.00 0.00 82 1016.6
20260509051304 53 276 1.0 3.0 0.00 0.00 0.00 82 1016.6
20260509051204 53 272 1.0 4.0 0.00 0.00 0.00 82 1016.6
20260509051104 53 263 1.0 4.0 0.00 0.00 0.00 82 1016.6
20260509051004 53 254 1.0 5.0 0.00 0.00 0.00 82 1016.5
20260509050912 53 244 2.0 6.0 0.00 0.00 0.00 82 1016.5
20260509050704 53 234 2.0 6.0 0.00 0.00 0.00 83 1016.4
20260509050504 53 231 3.0 6.0 0.00 0.00 0.00 83 1016.5
20260509050404 52 230 3.0 6.0 0.00 0.00 0.00 84 1016.6
20260509050209 52 231 3.0 6.0 0.00 0.00 0.00 84 1016.5
20260509050104 52 231 3.0 6.0 0.00 0.00 0.00 84 1016.6
20260509050005 52 232 3.0 6.0 0.00 0.00 0.00 84 1016.6
20260509045903 52 234 3.0 6.0 0.00 0.00 0.00 84 1016.6
20260509045804 52 235 3.0 5.0 0.00 0.00 0.00 84 1016.5
20260509045703 52 237 2.0 5.0 0.00 0.00 0.00 84 1016.5
20260509045603 52 239 2.0 4.0 0.00 0.00 0.00 84 1016.5
20260509045504 52 239 2.0 4.0 0.00 0.00 0.00 84 1016.5
20260509045404 52 237 2.0 4.0 0.00 0.00 0.00 84 1016.5
20260509045306 52 237 2.0 4.0 0.00 0.00 0.00 85 1016.5
20260509045211 52 236 2.0 4.0 0.00 0.00 0.00 84 1016.5
20260509045104 52 235 2.0 4.0 0.00 0.00 0.00 84 1016.4
20260509045003 51 234 2.0 4.0 0.00 0.00 0.00 85 1016.4
20260509044904 51 233 2.0 4.0 0.00 0.00 0.00 85 1016.4
20260509044804 51 234 2.0 4.0 0.00 0.00 0.00 85 1016.4
20260509044704 51 234 2.0 4.0 0.00 0.00 0.00 85 1016.4
20260509044604 51 233 2.0 4.0 0.00 0.00 0.00 85 1016.4
20260509044504 51 233 2.0 4.0 0.00 0.00 0.00 84 1016.3
20260509044404 51 234 2.0 4.0 0.00 0.00 0.00 84 1016.3
20260509044304 51 234 2.0 4.0 0.00 0.00 0.00 84 1016.3
20260509044104 51 234 1.0 4.0 0.00 0.00 0.00 84 1016.3
20260509043904 51 229 1.0 4.0 0.00 0.00 0.00 84 1016.3
20260509043803 52 224 1.0 4.0 0.00 0.00 0.00 84 1016.2
20260509043704 52 220 2.0 4.0 0.00 0.00 0.00 84 1016.2
20260509043510 52 217 2.0 4.0 0.00 0.00 0.00 84 1016.2
20260509043403 52 217 2.0 4.0 0.00 0.00 0.00 84 1016.1
20260509043204 51 220 3.0 4.0 0.00 0.00 0.00 85 1016.1
20260509043104 51 220 3.0 4.0 0.00 0.00 0.00 85 1016.1
20260509043004 51 222 3.0 4.0 0.00 0.00 0.00 85 1016.0
20260509042904 51 224 3.0 5.0 0.00 0.00 0.00 85 1016.0
20260509042804 51 228 2.0 5.0 0.00 0.00 0.00 85 1016.1
20260509042704 51 231 2.0 5.0 0.00 0.00 0.00 85 1016.0
20260509042604 51 234 2.0 5.0 0.00 0.00 0.00 84 1016.1
20260509042204 51 243 1.0 5.0 0.00 0.00 0.00 84 1016.0
20260509042104 51 241 1.0 5.0 0.00 0.00 0.00 84 1016.0
20260509042005 51 237 1.0 5.0 0.00 0.00 0.00 84 1016.0
20260509041805 52 235 1.0 5.0 0.00 0.00 0.00 84 1015.9
20260509041704 52 236 1.0 5.0 0.00 0.00 0.00 84 1015.9
20260509041516 52 241 1.0 5.0 0.00 0.00 0.00 84 1015.8
20260509041404 51 245 1.0 5.0 0.00 0.00 0.00 84 1015.8
20260509041303 51 247 1.0 5.0 0.00 0.00 0.00 84 1015.8
20260509041204 51 249 2.0 5.0 0.00 0.00 0.00 84 1015.8
20260509041104 51 252 2.0 5.0 0.00 0.00 0.00 84 1015.8
20260509041004 51 258 1.0 3.0 0.00 0.00 0.00 84 1015.7
20260509040810 52 241 2.0 5.0 0.00 0.00 0.00 84 1015.8
20260509040704 52 232 2.0 5.0 0.00 0.00 0.00 84 1015.9
20260509040505 52 222 2.0 5.0 0.00 0.00 0.00 84 1015.7
20260509040404 52 220 2.0 5.0 0.00 0.00 0.00 84 1015.7
20260509040303 52 218 3.0 5.0 0.00 0.00 0.00 85 1015.7
20260509040204 51 216 3.0 5.0 0.00 0.00 0.00 85 1015.7
20260509040104 51 217 3.0 5.0 0.00 0.00 0.00 85 1015.6
20260509040005 51 217 3.0 5.0 0.00 0.00 0.00 85 1015.6
20260509035904 51 218 3.0 5.0 0.00 0.00 0.00 84 1015.6
20260509035813 51 219 3.0 5.0 0.00 0.00 0.00 84 1015.8
20260509035605 51 222 3.0 4.0 0.00 0.00 0.00 84 1015.8
20260509035504 51 221 3.0 4.0 0.00 0.00 0.00 84 1015.7
20260509035404 51 221 3.0 4.0 0.00 0.00 0.00 84 1015.7
20260509035306 51 220 3.0 4.0 0.00 0.00 0.00 84 1015.7
20260509035203 51 220 3.0 4.0 0.00 0.00 0.00 84 1015.8
20260509035109 51 220 3.0 4.0 0.00 0.00 0.00 84 1015.6
20260509035004 51 219 3.0 5.0 0.00 0.00 0.00 84 1015.6
20260509034903 51 220 3.0 5.0 0.00 0.00 0.00 84 1015.7
20260509034803 51 221 3.0 5.0 0.00 0.00 0.00 85 1015.7
20260509034704 51 222 3.0 5.0 0.00 0.00 0.00 85 1015.7
20260509034604 51 224 3.0 5.0 0.00 0.00 0.00 85 1015.7
20260509034504 51 225 3.0 5.0 0.00 0.00 0.00 85 1015.7
20260509034404 51 226 3.0 5.0 0.00 0.00 0.00 84 1015.7
20260509034304 51 228 3.0 5.0 0.00 0.00 0.00 84 1015.7
20260509034204 51 228 3.0 5.0 0.00 0.00 0.00 84 1015.6
20260509034111 51 227 3.0 5.0 0.00 0.00 0.00 84 1015.7
20260509034004 51 228 3.0 5.0 0.00 0.00 0.00 84 1015.7
20260509033904 51 228 4.0 5.0 0.00 0.00 0.00 84 1015.8
20260509033804 51 228 3.0 5.0 0.00 0.00 0.00 84 1015.7
20260509033704 51 230 3.0 5.0 0.00 0.00 0.00 84 1015.7
20260509033603 51 231 3.0 5.0 0.00 0.00 0.00 83 1015.8
20260509033504 51 233 3.0 5.0 0.00 0.00 0.00 83 1015.8
20260509033409 52 236 3.0 5.0 0.00 0.00 0.00 83 1015.8
20260509033304 52 238 3.0 5.0 0.00 0.00 0.00 82 1015.9
20260509033204 52 241 3.0 5.0 0.00 0.00 0.00 83 1015.8
20260509033004 52 250 3.0 5.0 0.00 0.00 0.00 82 1015.9
20260509032804 52 258 2.0 4.0 0.00 0.00 0.00 83 1015.8
20260509032603 52 258 1.0 4.0 0.00 0.00 0.00 83 1015.8
20260509032306 52 239 1.0 3.0 0.00 0.00 0.00 83 1015.7
20260509032204 52 230 1.0 3.0 0.00 0.00 0.00 83 1015.7
20260509032104 52 217 1.0 3.0 0.00 0.00 0.00 83 1015.8
20260509032005 52 204 1.0 2.0 0.00 0.00 0.00 83 1015.7
20260509031904 52 204 1.0 3.0 0.00 0.00 0.00 83 1015.8
20260509031804 52 211 1.0 3.0 0.00 0.00 0.00 83 1015.7
20260509031709 52 213 1.0 3.0 0.00 0.00 0.00 83 1015.8
20260509031603 52 213 1.0 3.0 0.00 0.00 0.00 83 1015.7
20260509031504 52 210 1.0 3.0 0.00 0.00 0.00 83 1015.7
20260509031403 52 215 1.0 3.0 0.00 0.00 0.00 82 1015.7
20260509031304 52 240 1.0 3.0 0.00 0.00 0.00 82 1015.7
20260509031203 52 258 1.0 3.0 0.00 0.00 0.00 82 1015.8
20260509031103 52 273 1.0 3.0 0.00 0.00 0.00 82 1015.7
20260509031004 53 288 1.0 3.0 0.00 0.00 0.00 82 1015.7
20260509030903 53 300 1.0 3.0 0.00 0.00 0.00 82 1015.7
20260509030804 53 316 1.0 3.0 0.00 0.00 0.00 83 1015.7
20260509030711 53 312 1.0 3.0 0.00 0.00 0.00 83 1015.7
20260509030604 53 308 1.0 3.0 0.00 0.00 0.00 82 1015.8
20260509030404 53 299 1.0 3.0 0.00 0.00 0.00 82 1015.8
20260509030304 53 290 1.0 3.0 0.00 0.00 0.00 83 1015.8
20260509030204 53 274 1.0 3.0 0.00 0.00 0.00 83 1015.9
20260509030104 53 262 1.0 3.0 0.00 0.00 0.00 83 1015.9
20260509030009 52 247 1.0 3.0 0.00 0.00 0.00 83 1015.9
20260509025904 52 239 1.0 4.0 0.00 0.00 0.00 83 1015.9
20260509025804 52 239 1.0 4.0 0.00 0.00 0.00 83 1015.9
20260509025704 52 239 1.0 4.0 0.00 0.00 0.00 83 1015.9
20260509025603 52 237 2.0 4.0 0.00 0.00 0.00 83 1015.9
20260509025504 52 233 2.0 4.0 0.00 0.00 0.00 83 1015.9
20260509025404 52 234 2.0 4.0 0.00 0.00 0.00 83 1016.0
20260509025307 52 232 2.0 5.0 0.00 0.00 0.00 83 1016.0
20260509025204 52 231 2.0 5.0 0.00 0.00 0.00 83 1016.0
20260509025104 52 231 3.0 5.0 0.00 0.00 0.00 82 1015.9
20260509024804 52 231 3.0 5.0 0.00 0.00 0.00 82 1016.0
20260509024704 52 233 3.0 5.0 0.00 0.00 0.00 82 1015.9
20260509024604 52 235 3.0 5.0 0.00 0.00 0.00 81 1016.0
20260509024504 52 237 3.0 5.0 0.00 0.00 0.00 81 1015.8
20260509024403 53 238 3.0 5.0 0.00 0.00 0.00 80 1015.9
20260509024312 53 240 3.0 5.0 0.00 0.00 0.00 80 1015.9
20260509024204 53 242 2.0 5.0 0.00 0.00 0.00 80 1015.9
20260509024103 53 241 2.0 5.0 0.00 0.00 0.00 79 1015.7
20260509024004 53 241 2.0 5.0 0.00 0.00 0.00 79 1015.8
20260509023904 54 238 2.0 4.0 0.00 0.00 0.00 79 1015.6
20260509023804 54 234 2.0 4.0 0.00 0.00 0.00 79 1015.7
20260509023704 54 224 1.0 3.0 0.00 0.00 0.00 80 1015.7
20260509023608 54 214 1.0 3.0 0.00 0.00 0.00 80 1015.7
20260509023504 54 207 1.0 3.0 0.00 0.00 0.00 80 1015.7
20260509023404 54 204 1.0 4.0 0.00 0.00 0.00 80 1015.7
20260509023304 54 202 2.0 4.0 0.00 0.00 0.00 80 1015.7
20260509023203 54 201 2.0 4.0 0.00 0.00 0.00 80 1015.6
20260509023104 54 205 2.0 4.0 0.00 0.00 0.00 80 1015.6
20260509023004 54 207 2.0 4.0 0.00 0.00 0.00 81 1015.6
20260509022805 54 218 2.0 4.0 0.00 0.00 0.00 81 1015.5
20260509022705 54 223 2.0 4.0 0.00 0.00 0.00 81 1015.7
20260509022611 53 226 2.0 4.0 0.00 0.00 0.00 81 1015.5
20260509022503 53 224 2.0 4.0 0.00 0.00 0.00 82 1015.5
20260509022405 53 220 2.0 4.0 0.00 0.00 0.00 82 1015.5
20260509022307 53 217 2.0 4.0 0.00 0.00 0.00 82 1015.6
20260509022104 53 213 2.0 4.0 0.00 0.00 0.00 82 1015.6
20260509021909 53 217 2.0 4.0 0.00 0.00 0.00 82 1015.5
20260509021803 53 214 1.0 4.0 0.00 0.00 0.00 82 1015.5
20260509021603 53 213 1.0 3.0 0.00 0.00 0.00 82 1015.5
20260509021504 53 230 1.0 3.0 0.00 0.00 0.00 82 1015.5
20260509021404 53 250 1.0 3.0 0.00 0.00 0.00 82 1015.5
20260509021304 53 264 1.0 3.0 0.00 0.00 0.00 81 1015.5
20260509021203 53 270 1.0 3.0 0.00 0.00 0.00 81 1015.5
20260509020904 53 283 1.0 4.0 0.00 0.00 0.00 81 1015.6
20260509020803 53 286 1.0 4.0 0.00 0.00 0.00 81 1015.5
20260509020703 53 287 1.0 4.0 0.00 0.00 0.00 81 1015.6
20260509020611 53 289 1.0 4.0 0.00 0.00 0.00 81 1015.6
20260509020505 53 295 1.0 4.0 0.00 0.00 0.00 81 1015.6
20260509020404 53 301 1.0 4.0 0.00 0.00 0.00 81 1015.7
20260509020304 53 303 1.0 4.0 0.00 0.00 0.00 81 1015.6
20260509020104 53 307 1.0 4.0 0.00 0.00 0.00 81 1015.6
20260509020004 53 315 1.0 4.0 0.00 0.00 0.00 81 1015.8
20260509015904 53 322 1.0 4.0 0.00 0.00 0.00 81 1015.8
20260509015804 53 325 1.0 4.0 0.00 0.00 0.00 81 1015.7
20260509015704 53 324 1.0 4.0 0.00 0.00 0.00 82 1015.7
20260509015610 53 324 2.0 4.0 0.00 0.00 0.00 82 1015.8
20260509015504 53 326 2.0 5.0 0.00 0.00 0.00 82 1015.7
20260509015403 53 325 2.0 5.0 0.00 0.00 0.00 82 1015.8
20260509015306 53 325 2.0 5.0 0.00 0.00 0.00 81 1015.8
20260509015204 53 325 2.0 5.0 0.00 0.00 0.00 81 1015.8
20260509015104 53 323 2.0 5.0 0.00 0.00 0.00 81 1015.8
20260509014804 53 285 2.0 5.0 0.00 0.00 0.00 82 1015.8
20260509014404 53 249 1.0 4.0 0.00 0.00 0.00 81 1015.8
20260509014304 53 249 1.0 4.0 0.00 0.00 0.00 81 1015.9
20260509014203 53 248 1.0 4.0 0.00 0.00 0.00 81 1015.8
20260509014104 53 247 1.0 5.0 0.00 0.00 0.00 81 1015.8
20260509014004 53 244 2.0 5.0 0.00 0.00 0.00 81 1015.9
20260509013910 53 244 2.0 5.0 0.00 0.00 0.00 82 1015.8
20260509013804 53 243 2.0 5.0 0.00 0.00 0.00 82 1015.8
20260509013704 53 241 2.0 5.0 0.00 0.00 0.00 82 1015.8
20260509013604 53 240 3.0 7.0 0.00 0.00 0.00 82 1015.8
20260509013504 53 238 3.0 7.0 0.00 0.00 0.00 82 1015.8
20260509013404 53 236 4.0 7.0 0.00 0.00 0.00 82 1015.8
20260509013304 53 234 4.0 7.0 0.00 0.00 0.00 83 1015.8
20260509013104 53 232 5.0 7.0 0.00 0.00 0.00 82 1015.9
20260509013004 53 232 5.0 7.0 0.00 0.00 0.00 82 1015.8
20260509012903 53 231 5.0 7.0 0.00 0.00 0.00 82 1015.9
20260509012803 53 230 5.0 7.0 0.00 0.00 0.00 82 1015.9
20260509012604 53 227 6.0 8.0 0.00 0.00 0.00 83 1016.0
20260509012504 53 227 6.0 8.0 0.00 0.00 0.00 83 1015.8
20260509012404 53 226 6.0 8.0 0.00 0.00 0.00 83 1016.0
20260509012307 53 225 6.0 8.0 0.00 0.00 0.00 83 1016.0
20260509012210 52 225 6.0 8.0 0.00 0.00 0.00 82 1015.9
20260509012104 53 224 6.0 8.0 0.00 0.00 0.00 82 1015.9
20260509012004 53 223 6.0 8.0 0.00 0.00 0.00 82 1016.0
20260509011803 53 222 6.0 8.0 0.00 0.00 0.00 82 1016.0
20260509011704 53 222 6.0 8.0 0.00 0.00 0.00 82 1015.9
20260509011603 53 221 6.0 8.0 0.00 0.00 0.00 82 1016.0
20260509011404 53 221 5.0 8.0 0.00 0.00 0.00 82 1015.9
20260509011303 53 221 5.0 8.0 0.00 0.00 0.00 82 1016.0
20260509011213 53 220 5.0 7.0 0.00 0.00 0.00 82 1016.0
20260509011104 53 220 5.0 7.0 0.00 0.00 0.00 82 1015.9
20260509011004 53 220 5.0 7.0 0.00 0.00 0.00 82 1015.9
20260509010904 53 220 5.0 7.0 0.00 0.00 0.00 81 1016.0
20260509010804 53 219 5.0 7.0 0.00 0.00 0.00 81 1016.0
20260509010510 53 217 5.0 7.0 0.00 0.00 0.00 81 1016.1
20260509010404 53 217 5.0 7.0 0.00 0.00 0.00 81 1016.0
20260509010303 53 217 4.0 6.0 0.00 0.00 0.00 81 1015.9
20260509010203 53 217 4.0 6.0 0.00 0.00 0.00 81 1016.0
20260509010103 53 218 4.0 6.0 0.00 0.00 0.00 81 1015.9
20260509010004 53 219 4.0 6.0 0.00 0.00 0.00 81 1015.9
20260509005809 53 222 4.0 6.0 0.00 0.00 0.00 81 1016.0
20260509005704 53 223 4.0 6.0 0.00 0.00 0.00 80 1015.9
20260509005604 53 224 4.0 6.0 0.00 0.00 0.00 80 1015.9
20260509005504 53 226 3.0 6.0 0.00 0.00 0.00 80 1015.9
20260509005404 53 229 3.0 6.0 0.00 0.00 0.00 80 1015.9
20260509005306 53 232 3.0 6.0 0.00 0.00 0.00 80 1015.9
20260509005203 54 234 3.0 6.0 0.00 0.00 0.00 80 1015.8
20260509004904 54 240 2.0 4.0 0.00 0.00 0.00 80 1015.8
20260509004504 54 244 2.0 4.0 0.00 0.00 0.00 80 1015.8
20260509004403 54 241 2.0 4.0 0.00 0.00 0.00 80 1015.9
20260509004304 54 239 2.0 4.0 0.00 0.00 0.00 80 1015.8
20260509004204 54 240 2.0 5.0 0.00 0.00 0.00 80 1015.8
20260509004109 54 241 2.0 5.0 0.00 0.00 0.00 80 1015.8
20260509004004 54 242 2.0 5.0 0.00 0.00 0.00 80 1015.8
20260509003804 54 247 2.0 5.0 0.00 0.00 0.00 80 1015.8
20260509003704 54 249 2.0 5.0 0.00 0.00 0.00 80 1015.8
20260509003604 54 249 2.0 5.0 0.00 0.00 0.00 80 1015.8
20260509003504 54 250 2.0 5.0 0.00 0.00 0.00 80 1015.8
20260509003408 54 255 2.0 5.0 0.00 0.00 0.00 80 1015.9
20260509003204 54 265 1.0 5.0 0.00 0.00 0.00 80 1015.7
20260509003104 54 272 1.0 3.0 0.00 0.00 0.00 80 1015.8
20260509003004 54 277 1.0 3.0 0.00 0.00 0.00 80 1015.8
20260509002904 54 279 1.0 2.0 0.00 0.00 0.00 80 1015.7
20260509002804 54 281 1.0 2.0 0.00 0.00 0.00 80 1015.7
20260509002704 54 285 1.0 2.0 0.00 0.00 0.00 80 1015.8
20260509002504 54 287 0.0 2.0 0.00 0.00 0.00 80 1015.9
20260509002412 54 287 0.0 2.0 0.00 0.00 0.00 80 1015.8
20260509002306 54 284 1.0 2.0 0.00 0.00 0.00 80 1015.8
20260509002204 54 280 1.0 3.0 0.00 0.00 0.00 80 1015.9
20260509002104 54 281 1.0 3.0 0.00 0.00 0.00 80 1015.8
20260509002004 54 280 1.0 3.0 0.00 0.00 0.00 80 1015.8
20260509001904 54 279 1.0 3.0 0.00 0.00 0.00 80 1015.8
20260509001804 54 276 1.0 3.0 0.00 0.00 0.00 80 1015.8
20260509001711 54 270 1.0 4.0 0.00 0.00 0.00 80 1015.8
20260509001604 54 266 1.0 4.0 0.00 0.00 0.00 81 1015.8
20260509001504 54 261 2.0 7.0 0.00 0.00 0.00 81 1015.8
20260509001404 54 252 2.0 7.0 0.00 0.00 0.00 81 1015.8
20260509001304 54 247 3.0 8.0 0.00 0.00 0.00 81 1015.8
20260509001204 54 243 3.0 8.0 0.00 0.00 0.00 81 1015.8
20260509001103 54 239 4.0 8.0 0.00 0.00 0.00 81 1015.7
20260509001009 54 235 4.0 8.0 0.00 0.00 0.00 81 1015.8
20260509000903 54 233 5.0 8.0 0.00 0.00 0.00 81 1015.6
20260509000804 54 231 5.0 8.0 0.00 0.00 0.00 81 1015.7
20260509000704 54 230 6.0 8.0 0.00 0.00 0.00 81 1015.7
20260509000504 53 228 6.0 8.0 0.00 0.00 0.00 81 1015.8
20260509000403 53 228 6.0 8.0 0.00 0.00 0.00 81 1015.7
20260509000204 53 227 6.0 9.0 0.00 0.00 0.00 81 1015.8
20260509000104 53 226 7.0 9.0 0.00 0.00 0.00 81 1015.8
20260509000010 53 226 7.0 9.0 0.00 0.00 0.00 81 1015.7
20260508235904 53 225 7.0 9.0 0.00 0.00 0.00 81 1015.8
20260508235804 53 224 6.0 9.0 0.00 0.00 0.00 81 1015.7
20260508235704 53 223 6.0 9.0 0.00 0.00 0.00 81 1015.8
20260508235604 53 222 6.0 9.0 0.00 0.00 0.00 81 1015.6
20260508235405 53 219 7.0 9.0 0.00 0.00 0.00 81 1015.7
20260508235309 53 218 6.0 9.0 0.00 0.00 0.00 81 1015.7
20260508235203 54 216 6.0 9.0 0.00 0.00 0.00 81 1015.7
20260508235104 54 215 6.0 9.0 0.00 0.00 0.00 81 1015.6
20260508235004 54 213 6.0 9.0 0.00 0.00 0.00 81 1015.6
20260508234904 54 213 6.0 9.0 0.00 0.00 0.00 80 1015.7
20260508234804 54 212 6.0 9.0 0.00 0.00 0.00 80 1015.7
20260508234703 54 212 6.0 9.0 0.00 0.00 0.00 80 1015.7
20260508234604 54 213 6.0 9.0 0.00 0.00 0.00 80 1015.7
20260508234312 54 213 6.0 9.0 0.00 0.00 0.00 80 1015.6
20260508234204 54 213 6.0 9.0 0.00 0.00 0.00 80 1015.6
20260508234104 54 214 5.0 9.0 0.00 0.00 0.00 80 1015.7
20260508234004 54 213 5.0 9.0 0.00 0.00 0.00 79 1015.6
20260508233904 54 213 4.0 8.0 0.00 0.00 0.00 79 1015.7
20260508233804 54 213 4.0 8.0 0.00 0.00 0.00 79 1015.7
20260508233704 54 213 4.0 8.0 0.00 0.00 0.00 79 1015.7
20260508233611 54 213 4.0 8.0 0.00 0.00 0.00 79 1015.6
20260508233504 54 215 3.0 7.0 0.00 0.00 0.00 79 1015.5
20260508233304 55 216 2.0 5.0 0.00 0.00 0.00 79 1015.6
20260508233104 55 222 2.0 4.0 0.00 0.00 0.00 79 1015.5
20260508233005 55 223 2.0 4.0 0.00 0.00 0.00 79 1015.5
20260508232910 55 223 2.0 4.0 0.00 0.00 0.00 79 1015.5
20260508232803 55 224 2.0 4.0 0.00 0.00 0.00 78 1015.5
20260508232704 55 224 2.0 4.0 0.00 0.00 0.00 78 1015.5
20260508232504 55 228 2.0 4.0 0.00 0.00 0.00 79 1015.4
20260508232404 55 231 2.0 4.0 0.00 0.00 0.00 79 1015.5
20260508232307 55 234 2.0 4.0 0.00 0.00 0.00 79 1015.5
20260508231904 55 254 2.0 4.0 0.00 0.00 0.00 79 1015.6
20260508231803 55 266 2.0 4.0 0.00 0.00 0.00 79 1015.5
20260508231604 55 291 1.0 4.0 0.00 0.00 0.00 79 1015.6
20260508231508 55 299 1.0 4.0 0.00 0.00 0.00 79 1015.6
20260508231303 55 297 1.0 3.0 0.00 0.00 0.00 79 1015.6
20260508231204 55 287 1.0 5.0 0.00 0.00 0.00 79 1015.5
20260508231104 55 276 2.0 5.0 0.00 0.00 0.00 79 1015.5
20260508231004 55 264 2.0 6.0 0.00 0.00 0.00 79 1015.6
20260508230904 55 255 2.0 6.0 0.00 0.00 0.00 79 1015.6
20260508230808 55 249 3.0 6.0 0.00 0.00 0.00 79 1015.5
20260508230704 55 242 3.0 6.0 0.00 0.00 0.00 79 1015.5
20260508230603 55 237 3.0 6.0 0.00 0.00 0.00 79 1015.6
20260508230504 55 233 3.0 6.0 0.00 0.00 0.00 79 1015.6
20260508230403 55 230 4.0 6.0 0.00 0.00 0.00 79 1015.5
20260508230304 55 229 4.0 7.0 0.00 0.00 0.00 79 1015.5
20260508230107 55 225 5.0 7.0 0.00 0.00 0.00 79 1015.7
20260508230004 55 224 5.0 7.0 0.00 0.00 0.00 79 1015.7
20260508225903 55 223 5.0 7.0 0.00 0.00 0.00 79 1015.6
20260508225803 55 224 5.0 7.0 0.00 0.00 0.00 79 1015.6
20260508225704 55 224 5.0 8.0 0.00 0.00 0.00 79 1015.6
20260508225604 55 224 5.0 8.0 0.00 0.00 0.00 79 1015.7
20260508225504 55 224 5.0 8.0 0.00 0.00 0.00 79 1015.6
20260508225406 55 225 5.0 8.0 0.00 0.00 0.00 79 1015.6
20260508225204 55 226 5.0 8.0 0.00 0.00 0.00 79 1015.7
20260508225111 55 227 5.0 8.0 0.00 0.00 0.00 79 1015.8
20260508224903 55 227 5.0 8.0 0.00 0.00 0.00 79 1015.7
20260508224804 55 226 5.0 8.0 0.00 0.00 0.00 79 1015.7
20260508224703 55 224 5.0 8.0 0.00 0.00 0.00 79 1015.7
20260508224603 55 223 5.0 8.0 0.00 0.00 0.00 79 1015.6
20260508224204 55 219 5.0 8.0 0.00 0.00 0.00 79 1015.6
20260508224104 55 219 5.0 8.0 0.00 0.00 0.00 79 1015.6
20260508224004 55 219 5.0 8.0 0.00 0.00 0.00 79 1015.6
20260508223905 55 219 5.0 8.0 0.00 0.00 0.00 79 1015.7
20260508223804 55 219 5.0 8.0 0.00 0.00 0.00 79 1015.7
20260508223704 55 221 5.0 8.0 0.00 0.00 0.00 79 1015.7
20260508223604 55 223 5.0 8.0 0.00 0.00 0.00 79 1015.7
20260508223504 55 225 5.0 8.0 0.00 0.00 0.00 78 1015.7
20260508223414 55 227 5.0 7.0 0.00 0.00 0.00 78 1015.7
20260508223304 55 229 4.0 7.0 0.00 0.00 0.00 78 1015.7
20260508223203 55 231 4.0 7.0 0.00 0.00 0.00 78 1015.6
20260508223104 55 233 4.0 7.0 0.00 0.00 0.00 79 1015.7
20260508222903 55 236 4.0 7.0 0.00 0.00 0.00 79 1015.7
20260508222803 55 237 4.0 7.0 0.00 0.00 0.00 78 1015.6
20260508222505 55 237 5.0 7.0 0.00 0.00 0.00 79 1015.6
20260508222403 55 235 5.0 7.0 0.00 0.00 0.00 79 1015.6
20260508222306 55 233 5.0 7.0 0.00 0.00 0.00 78 1015.6
20260508222104 55 231 5.0 7.0 0.00 0.00 0.00 78 1015.6
20260508222009 55 230 5.0 7.0 0.00 0.00 0.00 78 1015.6
20260508221904 55 229 5.0 7.0 0.00 0.00 0.00 78 1015.6
20260508221604 55 227 5.0 7.0 0.00 0.00 0.00 78 1015.5
20260508221504 55 226 5.0 7.0 0.00 0.00 0.00 78 1015.5
20260508221304 55 226 5.0 7.0 0.00 0.00 0.00 78 1015.5
20260508221204 55 226 5.0 7.0 0.00 0.00 0.00 78 1015.4
20260508221104 56 226 5.0 7.0 0.00 0.00 0.00 77 1015.4
20260508221013 56 226 5.0 7.0 0.00 0.00 0.00 77 1015.4
20260508220904 56 227 5.0 7.0 0.00 0.00 0.00 77 1015.4
20260508220704 56 227 5.0 7.0 0.00 0.00 0.00 78 1015.4
20260508220604 56 228 5.0 7.0 0.00 0.00 0.00 77 1015.5
20260508220504 56 230 5.0 7.0 0.00 0.00 0.00 77 1015.5
20260508220204 56 236 4.0 7.0 0.00 0.00 0.00 77 1015.4
20260508220105 56 235 4.0 7.0 0.00 0.00 0.00 77 1015.4
20260508215904 56 234 3.0 7.0 0.00 0.00 0.00 77 1015.4
20260508215804 56 236 3.0 7.0 0.00 0.00 0.00 77 1015.4
20260508215705 56 238 3.0 7.0 0.00 0.00 0.00 78 1015.4
20260508215609 56 238 3.0 7.0 0.00 0.00 0.00 78 1015.4
20260508215504 56 238 3.0 7.0 0.00 0.00 0.00 78 1015.4
20260508215404 56 236 4.0 7.0 0.00 0.00 0.00 78 1015.5
20260508215203 56 233 4.0 8.0 0.00 0.00 0.00 78 1015.5
20260508215103 56 235 4.0 8.0 0.00 0.00 0.00 78 1015.6
20260508215004 56 235 4.0 8.0 0.00 0.00 0.00 78 1015.6
20260508214803 56 236 5.0 8.0 0.00 0.00 0.00 78 1015.6
20260508214704 56 235 5.0 8.0 0.00 0.00 0.00 78 1015.6
20260508214604 56 236 5.0 8.0 0.00 0.00 0.00 78 1015.5
20260508214503 56 236 5.0 8.0 0.00 0.00 0.00 78 1015.6
20260508214404 56 237 5.0 8.0 0.00 0.00 0.00 77 1015.6
20260508214303 56 237 4.0 8.0 0.00 0.00 0.00 78 1015.5
20260508214207 56 238 5.0 7.0 0.00 0.00 0.00 77 1015.5
20260508214005 56 237 5.0 8.0 0.00 0.00 0.00 77 1015.5
20260508213904 56 236 5.0 8.0 0.00 0.00 0.00 77 1015.4
20260508213803 56 234 5.0 8.0 0.00 0.00 0.00 77 1015.5
20260508213703 56 231 5.0 8.0 0.00 0.00 0.00 77 1015.5
20260508213604 56 228 5.0 8.0 0.00 0.00 0.00 77 1015.4
20260508213508 56 226 5.0 8.0 0.00 0.00 0.00 77 1015.3
20260508213404 56 223 5.0 8.0 0.00 0.00 0.00 77 1015.4
20260508213304 56 221 5.0 8.0 0.00 0.00 0.00 77 1015.4
20260508213203 56 219 5.0 8.0 0.00 0.00 0.00 77 1015.3
20260508213104 56 217 5.0 8.0 0.00 0.00 0.00 76 1015.3
20260508212904 56 217 5.0 8.0 0.00 0.00 0.00 77 1015.3
20260508212808 56 218 5.0 8.0 0.00 0.00 0.00 77 1015.4
20260508212703 56 220 5.0 8.0 0.00 0.00 0.00 77 1015.3
20260508212604 56 222 5.0 8.0 0.00 0.00 0.00 76 1015.3
20260508212504 56 224 5.0 8.0 0.00 0.00 0.00 76 1015.3
20260508212404 56 225 5.0 8.0 0.00 0.00 0.00 76 1015.3
20260508212306 56 226 5.0 7.0 0.00 0.00 0.00 76 1015.3
20260508212204 56 227 5.0 8.0 0.00 0.00 0.00 76 1015.3
20260508212107 56 227 5.0 8.0 0.00 0.00 0.00 76 1015.2
20260508212004 57 227 5.0 8.0 0.00 0.00 0.00 76 1015.2
20260508211904 56 226 5.0 8.0 0.00 0.00 0.00 76 1015.1
20260508211804 57 225 5.0 8.0 0.00 0.00 0.00 76 1015.1
20260508211504 57 220 5.0 8.0 0.00 0.00 0.00 76 1015.2
20260508211407 57 220 5.0 8.0 0.00 0.00 0.00 76 1015.2
20260508211303 57 220 4.0 8.0 0.00 0.00 0.00 76 1015.2
20260508211203 57 221 4.0 7.0 0.00 0.00 0.00 76 1015.1
20260508211104 57 222 4.0 7.0 0.00 0.00 0.00 76 1015.3
20260508211004 57 224 4.0 7.0 0.00 0.00 0.00 76 1015.2
20260508210904 57 225 4.0 7.0 0.00 0.00 0.00 76 1015.2
20260508210708 57 225 4.0 8.0 0.00 0.00 0.00 76 1015.2
20260508210604 57 224 4.0 8.0 0.00 0.00 0.00 76 1015.2
20260508210504 57 225 4.0 8.0 0.00 0.00 0.00 76 1015.2
20260508210405 57 226 5.0 8.0 0.00 0.00 0.00 76 1015.2
20260508210305 57 225 5.0 8.0 0.00 0.00 0.00 76 1015.2
20260508210203 57 224 5.0 8.0 0.00 0.00 0.00 76 1015.1
20260508210104 57 223 5.0 8.0 0.00 0.00 0.00 76 1015.2
20260508210009 57 223 5.0 8.0 0.00 0.00 0.00 76 1015.2
20260508205904 57 223 5.0 8.0 0.00 0.00 0.00 76 1015.1
20260508205804 57 221 5.0 8.0 0.00 0.00 0.00 76 1015.2
20260508205703 57 220 5.0 8.0 0.00 0.00 0.00 76 1015.2
20260508205604 57 219 6.0 9.0 0.00 0.00 0.00 76 1015.1
20260508205504 57 217 6.0 9.0 0.00 0.00 0.00 76 1015.2
20260508205403 57 216 6.0 9.0 0.00 0.00 0.00 76 1015.1
20260508205307 57 214 6.0 9.0 0.00 0.00 0.00 76 1015.1
20260508205204 57 214 5.0 9.0 0.00 0.00 0.00 76 1015.1
20260508205004 57 212 5.0 9.0 0.00 0.00 0.00 76 1015.1
20260508204704 57 214 5.0 9.0 0.00 0.00 0.00 76 1015.1
20260508204607 57 216 5.0 8.0 0.00 0.00 0.00 76 1015.1
20260508204504 57 219 5.0 8.0 0.00 0.00 0.00 76 1015.2
20260508204403 57 220 5.0 8.0 0.00 0.00 0.00 76 1015.2
20260508204303 57 222 5.0 8.0 0.00 0.00 0.00 76 1015.2
20260508204204 57 224 5.0 8.0 0.00 0.00 0.00 76 1015.2
20260508203907 57 227 5.0 7.0 0.00 0.00 0.00 76 1015.1
20260508203805 57 229 5.0 7.0 0.00 0.00 0.00 75 1015.0
20260508203704 57 230 5.0 7.0 0.00 0.00 0.00 75 1015.0
20260508203604 57 231 5.0 8.0 0.00 0.00 0.00 75 1015.0
20260508203504 57 231 5.0 8.0 0.00 0.00 0.00 75 1015.0
20260508203403 57 232 5.0 8.0 0.00 0.00 0.00 75 1015.0
20260508203304 57 231 5.0 8.0 0.00 0.00 0.00 75 1015.0
20260508203209 57 233 5.0 8.0 0.00 0.00 0.00 75 1015.1
20260508203104 57 236 5.0 8.0 0.00 0.00 0.00 75 1015.0
20260508203005 57 239 5.0 8.0 0.00 0.00 0.00 75 1015.0
20260508202905 57 241 5.0 8.0 0.00 0.00 0.00 75 1015.0
20260508202804 57 244 5.0 8.0 0.00 0.00 0.00 75 1015.0
20260508202704 57 248 5.0 8.0 0.00 0.00 0.00 75 1014.9
20260508202603 57 252 4.0 8.0 0.00 0.00 0.00 75 1015.0
20260508202509 57 260 4.0 8.0 0.00 0.00 0.00 75 1014.9
20260508202403 58 266 3.0 8.0 0.00 0.00 0.00 75 1015.0
20260508202306 58 268 3.0 7.0 0.00 0.00 0.00 75 1015.0
20260508202203 58 269 3.0 7.0 0.00 0.00 0.00 75 1014.9
20260508202105 58 265 3.0 8.0 0.00 0.00 0.00 75 1014.9
20260508202003 58 261 3.0 8.0 0.00 0.00 0.00 75 1014.9
20260508201806 58 249 4.0 8.0 0.00 0.00 0.00 75 1015.0
20260508201604 58 237 4.0 9.0 0.00 0.00 0.00 75 1014.9
20260508201504 58 233 5.0 9.0 0.00 0.00 0.00 75 1014.9
20260508201304 58 230 6.0 9.0 0.00 0.00 0.00 74 1014.9
20260508201107 58 227 6.0 9.0 0.00 0.00 0.00 74 1014.9
20260508200903 58 224 5.0 9.0 0.00 0.00 0.00 74 1014.9
20260508200804 58 224 6.0 9.0 0.00 0.00 0.00 73 1014.9
20260508200704 58 222 5.0 9.0 0.00 0.00 0.00 73 1014.9
20260508200603 58 222 5.0 9.0 0.00 0.00 0.00 73 1014.9
20260508200504 58 222 5.0 9.0 0.00 0.00 0.00 73 1014.8
20260508200304 58 221 5.0 7.0 0.00 0.00 0.00 73 1014.8
20260508200205 58 220 5.0 7.0 0.00 0.00 0.00 73 1014.8
20260508200114 58 220 5.0 7.0 0.00 0.00 0.00 73 1014.8
20260508200005 58 222 5.0 7.0 0.00 0.00 0.00 73 1014.9
20260508195905 58 223 5.0 7.0 0.00 0.00 0.00 73 1014.8
20260508195803 58 216 5.0 7.0 0.00 0.00 0.00 73 1014.7
20260508195704 58 226 5.0 7.0 0.00 0.00 0.00 74 1014.7
20260508195504 58 225 6.0 7.0 0.00 0.00 0.00 74 1014.7
20260508195404 58 226 6.0 7.0 0.00 0.00 0.00 74 1014.7
20260508194903 58 224 6.0 9.0 0.00 0.00 0.00 74 1014.7
20260508194803 58 225 5.0 9.0 0.00 0.00 0.00 74 1014.7
20260508194603 58 227 5.0 9.0 0.00 0.00 0.00 73 1014.6
20260508194504 58 227 4.0 9.0 0.00 0.00 0.00 73 1014.7
20260508194404 58 227 4.0 9.0 0.00 0.00 0.00 73 1014.7
20260508194304 58 228 4.0 7.0 0.00 0.00 0.00 73 1014.7
20260508194203 58 230 3.0 7.0 0.00 0.00 0.00 73 1014.6
20260508194103 59 232 3.0 7.0 0.00 0.00 0.00 73 1014.7
20260508194004 59 234 3.0 6.0 0.00 0.00 0.00 73 1014.6
20260508193903 59 236 2.0 6.0 0.00 0.00 0.00 72 1014.6
20260508193804 59 241 2.0 5.0 0.00 0.00 0.00 72 1014.7
20260508193712 59 246 2.0 5.0 0.00 0.00 0.00 72 1014.6
20260508193603 59 251 2.0 4.0 0.00 0.00 0.00 72 1014.6
20260508193503 59 253 2.0 4.0 0.00 0.00 0.00 72 1014.5
20260508193403 59 257 2.0 5.0 0.00 0.00 0.00 72 1014.5
20260508193303 59 254 2.0 6.0 0.00 0.00 0.00 72 1014.5
20260508193104 59 254 3.0 6.0 0.00 0.00 0.00 72 1014.5
20260508193003 59 255 2.0 6.0 0.00 0.00 0.00 72 1014.5
20260508192904 59 254 3.0 6.0 0.00 0.00 0.00 72 1014.5
20260508192804 59 250 3.0 6.0 0.00 0.00 0.00 72 1014.4
20260508192711 59 249 3.0 6.0 0.00 0.00 0.00 72 1014.4
20260508192603 59 249 3.0 6.0 0.00 0.00 0.00 72 1014.5
20260508192504 59 250 3.0 6.0 0.00 0.00 0.00 72 1014.4
20260508192306 59 251 3.0 6.0 0.00 0.00 0.00 72 1014.3
20260508192204 59 252 3.0 6.0 0.00 0.00 0.00 72 1014.4
20260508192104 59 253 3.0 6.0 0.00 0.00 0.00 72 1014.4
20260508191903 60 247 3.0 6.0 0.00 0.00 0.00 72 1014.3
20260508191711 60 242 3.0 6.0 0.00 0.00 0.00 71 1014.2
20260508191604 60 236 3.0 7.0 0.00 0.00 0.00 71 1014.2
20260508191504 60 232 3.0 7.0 0.00 0.00 0.00 71 1014.1
20260508191403 60 227 3.0 7.0 0.00 0.00 0.00 71 1014.1
20260508191304 60 225 3.0 7.0 0.00 0.00 0.00 71 1014.1
20260508191204 60 223 3.0 7.0 0.00 0.00 0.00 71 1014.1
20260508191104 60 221 3.0 7.0 0.00 0.00 0.00 71 1014.1
20260508191003 60 221 3.0 7.0 0.00 0.00 0.00 71 1014.1
20260508190706 60 218 4.0 7.0 0.00 0.00 0.00 71 1014.0
20260508190416 60 218 4.0 7.0 0.00 0.00 0.00 71 1014.0
20260508190306 60 219 4.0 7.0 0.00 0.00 0.00 71 1013.9
20260508190205 60 219 4.0 7.0 0.00 0.00 0.00 71 1013.9
20260508190006 60 220 3.0 7.0 0.00 0.00 0.00 71 1013.9
20260508185906 60 220 3.0 6.0 0.00 0.00 0.00 71 1013.8
20260508185806 60 221 3.0 6.0 0.00 0.00 0.00 71 1013.8
20260508185707 61 222 3.0 6.0 0.00 0.00 0.00 70 1013.7
20260508185607 61 223 3.0 6.0 0.00 0.00 0.00 71 1013.7
20260508185506 61 221 3.0 7.0 0.00 0.00 0.00 71 1013.7
20260508185416 61 220 3.0 7.0 0.00 0.00 0.00 70 1013.7
20260508185307 61 217 4.0 7.0 0.00 0.00 0.00 70 1013.7
20260508185205 61 216 4.0 7.0 0.00 0.00 0.00 70 1013.8
20260508185106 61 214 4.0 7.0 0.00 0.00 0.00 70 1013.7
20260508185007 61 213 4.0 7.0 0.00 0.00 0.00 70 1013.6
20260508184906 61 212 4.0 7.0 0.00 0.00 0.00 70 1013.6
20260508184805 61 211 5.0 7.0 0.00 0.00 0.00 70 1013.7
20260508184707 61 210 5.0 7.0 0.00 0.00 0.00 70 1013.6
20260508184605 61 209 5.0 7.0 0.00 0.00 0.00 70 1013.6
20260508184506 61 208 5.0 7.0 0.00 0.00 0.00 69 1013.7
20260508184416 61 209 4.0 7.0 0.00 0.00 0.00 69 1013.7
20260508184306 61 210 4.0 7.0 0.00 0.00 0.00 69 1013.6
20260508184206 61 211 3.0 7.0 0.00 0.00 0.00 69 1013.6
20260508184006 61 218 3.0 7.0 0.00 0.00 0.00 69 1013.6
20260508183906 62 224 2.0 6.0 0.00 0.00 0.00 69 1013.6
20260508183806 62 234 2.0 5.0 0.00 0.00 0.00 68 1013.6
20260508183705 62 244 2.0 5.0 0.00 0.00 0.00 68 1013.6
20260508183607 62 253 2.0 4.0 0.00 0.00 0.00 68 1013.6
20260508183414 62 265 2.0 4.0 0.00 0.00 0.00 68 1013.6
20260508183305 62 267 2.0 4.0 0.00 0.00 0.00 68 1013.4
20260508183206 62 269 2.0 4.0 0.00 0.00 0.00 68 1013.5
20260508183106 62 273 2.0 4.0 0.00 0.00 0.00 68 1013.6
20260508183007 62 277 2.0 4.0 0.00 0.00 0.00 67 1013.5
20260508182906 62 279 2.0 4.0 0.00 0.00 0.00 67 1013.6
20260508182706 63 276 1.0 4.0 0.00 0.00 0.00 67 1013.4
20260508182605 63 278 1.0 4.0 0.00 0.00 0.00 67 1013.4
20260508182506 63 279 1.0 3.0 0.00 0.00 0.00 67 1013.4
20260508182413 63 275 1.0 3.0 0.00 0.00 0.00 67 1013.4
20260508182307 63 274 1.0 2.0 0.00 0.00 0.00 67 1013.4
20260508182205 63 263 1.0 2.0 0.00 0.00 0.00 67 1013.4
20260508182106 63 223 1.0 3.0 0.00 0.00 0.00 66 1013.4
20260508182006 63 199 1.0 3.0 0.00 0.00 0.00 66 1013.5
20260508181907 63 185 1.0 3.0 0.00 0.00 0.00 66 1013.4
20260508181806 63 183 1.0 3.0 0.00 0.00 0.00 66 1013.4
20260508181707 63 185 1.0 3.0 0.00 0.00 0.00 67 1013.4
20260508181606 63 188 2.0 4.0 0.00 0.00 0.00 66 1013.4
20260508181507 63 192 2.0 5.0 0.00 0.00 0.00 66 1013.4
20260508181306 63 196 2.0 5.0 0.00 0.00 0.00 65 1013.3
20260508181205 63 198 3.0 5.0 0.00 0.00 0.00 65 1013.2
20260508181106 63 200 3.0 5.0 0.00 0.00 0.00 65 1013.3
20260508181005 63 202 3.0 5.0 0.00 0.00 0.00 65 1013.3
20260508180905 63 203 3.0 5.0 0.00 0.00 0.00 65 1013.3
20260508180706 63 204 3.0 5.0 0.00 0.00 0.00 65 1013.4
20260508180606 63 205 3.0 5.0 0.00 0.00 0.00 65 1013.3
20260508180413 63 204 3.0 5.0 0.00 0.00 0.00 64 1013.3
20260508180306 63 203 3.0 5.0 0.00 0.00 0.00 64 1013.4
20260508180206 63 202 3.0 5.0 0.00 0.00 0.00 65 1013.3
20260508180106 63 202 3.0 5.0 0.00 0.00 0.00 65 1013.3
20260508180006 63 202 3.0 5.0 0.00 0.00 0.00 65 1013.3
20260508175805 63 203 3.0 5.0 0.00 0.00 0.00 65 1013.3
20260508175706 63 204 3.0 5.0 0.00 0.00 0.00 65 1013.2
20260508175606 64 205 3.0 5.0 0.00 0.00 0.00 65 1013.2
20260508175414 64 208 3.0 5.0 0.00 0.00 0.00 65 1013.1
20260508175207 64 210 3.0 5.0 0.00 0.00 0.00 65 1013.2
20260508175106 64 210 3.0 5.0 0.00 0.00 0.00 64 1013.2
20260508175006 64 211 4.0 5.0 0.00 0.00 0.00 64 1013.2
20260508174806 64 212 3.0 5.0 0.00 0.00 0.00 64 1013.1
20260508174707 64 212 3.0 5.0 0.00 0.00 0.00 63 1013.2
20260508174507 64 212 2.0 5.0 0.00 0.00 0.00 64 1013.2
20260508174306 64 213 2.0 5.0 0.00 0.00 0.00 63 1013.2
20260508174106 64 217 1.0 5.0 0.00 0.00 0.00 63 1013.1
20260508174006 65 222 1.0 5.0 0.00 0.00 0.00 63 1013.1
20260508173906 65 240 0.0 3.0 0.00 0.00 0.00 63 1013.0
20260508173805 65 246 0.0 2.0 0.00 0.00 0.00 64 1013.1
20260508173705 65 246 0.0 1.0 0.00 0.00 0.00 64 1013.1
20260508173506 65 246 0.0 1.0 0.00 0.00 0.00 64 1013.1
20260508173413 65 246 0.0 1.0 0.00 0.00 0.00 64 1013.1
20260508173205 65 253 0.0 2.0 0.00 0.00 0.00 64 1013.1
20260508173006 65 257 0.0 3.0 0.00 0.00 0.00 64 1013.0
20260508172807 65 259 1.0 3.0 0.00 0.00 0.00 64 1013.0
20260508172706 65 261 1.0 3.0 0.00 0.00 0.00 64 1013.1
20260508172605 65 267 1.0 4.0 0.00 0.00 0.00 63 1013.0
20260508172506 65 271 1.0 4.0 0.00 0.00 0.00 63 1013.1
20260508172414 65 276 1.0 4.0 0.00 0.00 0.00 63 1013.0
20260508172307 65 283 1.0 4.0 0.00 0.00 0.00 63 1013.1
20260508172206 65 287 1.0 4.0 0.00 0.00 0.00 63 1013.0
20260508172007 65 293 1.0 4.0 0.00 0.00 0.00 62 1013.1
20260508171906 65 299 1.0 4.0 0.00 0.00 0.00 62 1013.0
20260508171806 65 303 1.0 4.0 0.00 0.00 0.00 62 1013.1
20260508171706 65 307 2.0 4.0 0.00 0.00 0.00 62 1013.1
20260508171613 65 312 1.0 4.0 0.00 0.00 0.00 62 1013.1
20260508171505 65 315 1.0 4.0 0.00 0.00 0.00 62 1013.0
20260508171413 65 317 1.0 4.0 0.00 0.00 0.00 62 1013.1
20260508171205 65 324 1.0 3.0 0.00 0.00 0.00 61 1013.0
20260508171106 65 327 1.0 3.0 0.00 0.00 0.00 61 1013.1
20260508171006 65 330 1.0 3.0 0.00 0.00 0.00 62 1013.1
20260508170906 65 330 1.0 3.0 0.00 0.00 0.00 62 1013.1
20260508170806 65 331 1.0 3.0 0.00 0.00 0.00 62 1013.0
20260508170706 65 331 1.0 3.0 0.00 0.00 0.00 62 1013.1
20260508170606 65 331 1.0 3.0 0.00 0.00 0.00 62 1013.1
20260508170413 65 332 1.0 3.0 0.00 0.00 0.00 61 1013.1
20260508170306 65 333 1.0 3.0 0.00 0.00 0.00 61 1013.0
20260508170206 65 335 1.0 3.0 0.00 0.00 0.00 60 1013.0
20260508170105 65 342 1.0 3.0 0.00 0.00 0.00 60 1013.0
20260508170006 66 345 1.0 3.0 0.00 0.00 0.00 60 1012.9
20260508165706 66 29 1.0 3.0 0.00 0.00 0.00 58 1013.0
20260508165606 66 42 1.0 3.0 0.00 0.00 0.00 58 1012.9
20260508165506 66 54 1.0 3.0 0.00 0.00 0.00 58 1012.9
20260508165307 66 78 1.0 4.0 0.00 0.00 0.00 58 1012.8
20260508165206 66 85 1.0 4.0 0.00 0.00 0.00 59 1012.9
20260508165105 66 91 1.0 4.0 0.00 0.00 0.00 59 1012.9
20260508165006 66 91 2.0 4.0 0.00 0.00 0.00 59 1012.9
20260508164906 66 95 2.0 4.0 0.00 0.00 0.00 59 1012.8
20260508164806 66 101 2.0 5.0 0.00 0.00 0.00 59 1012.8
20260508164607 66 103 2.0 6.0 0.00 0.00 0.00 59 1012.9
20260508164415 66 100 3.0 7.0 0.00 0.00 0.00 59 1012.8
20260508164305 66 103 3.0 7.0 0.00 0.00 0.00 59 1012.8
20260508164206 66 105 3.0 7.0 0.00 0.00 0.00 59 1012.8
20260508164106 66 103 3.0 7.0 0.00 0.00 0.00 59 1012.8
20260508164006 66 104 3.0 7.0 0.00 0.00 0.00 59 1012.8
20260508163906 66 103 3.0 7.0 0.00 0.00 0.00 59 1012.9
20260508163806 66 96 3.0 7.0 0.00 0.00 0.00 59 1012.8
20260508163706 67 95 3.0 7.0 0.00 0.00 0.00 59 1012.7
20260508163606 67 90 3.0 7.0 0.00 0.00 0.00 59 1012.7
20260508163506 67 85 3.0 6.0 0.00 0.00 0.00 60 1012.8
20260508163306 67 79 3.0 8.0 0.00 0.00 0.00 60 1012.7
20260508163206 67 73 3.0 8.0 0.00 0.00 0.00 60 1012.7
20260508163105 67 75 3.0 8.0 0.00 0.00 0.00 60 1012.8
20260508163007 67 73 4.0 8.0 0.00 0.00 0.00 60 1012.8
20260508162906 67 72 4.0 8.0 0.00 0.00 0.00 61 1012.7
20260508162806 67 76 4.0 8.0 0.00 0.00 0.00 61 1012.8
20260508162706 67 77 4.0 8.0 0.00 0.00 0.00 60 1012.7
20260508162605 67 80 5.0 8.0 0.00 0.00 0.00 60 1012.8
20260508162506 67 81 5.0 8.0 0.00 0.00 0.00 59 1012.7
20260508162414 67 81 5.0 8.0 0.00 0.00 0.00 58 1012.8
20260508162206 67 78 4.0 8.0 0.00 0.00 0.00 58 1012.7
20260508162106 67 78 4.0 8.0 0.00 0.00 0.00 58 1012.8
20260508162006 67 78 3.0 8.0 0.00 0.00 0.00 58 1012.8
20260508161906 67 79 3.0 8.0 0.00 0.00 0.00 58 1012.7
20260508161813 67 78 3.0 8.0 0.00 0.00 0.00 57 1012.7
20260508161706 68 77 3.0 8.0 0.00 0.00 0.00 57 1012.6
20260508161605 68 75 2.0 8.0 0.00 0.00 0.00 57 1012.7
20260508161506 68 76 2.0 7.0 0.00 0.00 0.00 58 1012.7
20260508161307 68 78 2.0 4.0 0.00 0.00 0.00 59 1012.7
20260508161205 68 80 2.0 4.0 0.00 0.00 0.00 59 1012.6
20260508161007 68 82 2.0 4.0 0.00 0.00 0.00 59 1012.7
20260508160906 68 87 2.0 4.0 0.00 0.00 0.00 59 1012.7
20260508160806 68 88 2.0 4.0 0.00 0.00 0.00 59 1012.7
20260508160706 68 114 2.0 4.0 0.00 0.00 0.00 59 1012.8
20260508160606 68 199 2.0 5.0 0.00 0.00 0.00 59 1012.7
20260508160506 68 217 2.0 5.0 0.00 0.00 0.00 58 1012.8
20260508160205 68 225 3.0 9.0 0.00 0.00 0.00 56 1012.8
20260508155806 68 209 4.0 9.0 0.00 0.00 0.00 52 1012.8
20260508155707 68 202 4.0 9.0 0.00 0.00 0.00 52 1012.7
20260508155606 68 199 4.0 9.0 0.00 0.00 0.00 52 1012.7
20260508155506 68 199 4.0 9.0 0.00 0.00 0.00 51 1012.7
20260508155413 68 194 4.0 8.0 0.00 0.00 0.00 52 1012.7
20260508155306 68 190 4.0 8.0 0.00 0.00 0.00 53 1012.8
20260508155206 68 189 4.0 8.0 0.00 0.00 0.00 53 1012.9
20260508155105 68 190 4.0 8.0 0.00 0.00 0.00 54 1012.8
20260508155007 67 188 5.0 8.0 0.00 0.00 0.00 54 1012.8
20260508154906 67 189 5.0 8.0 0.00 0.00 0.00 53 1012.9
20260508154705 67 196 5.0 7.0 0.00 0.00 0.00 53 1012.9
20260508154606 67 193 5.0 10.0 0.00 0.00 0.00 53 1012.9
20260508154506 68 191 5.0 10.0 0.00 0.00 0.00 53 1012.8
20260508154413 68 190 5.0 10.0 0.00 0.00 0.00 52 1012.8
20260508154306 68 189 5.0 10.0 0.00 0.00 0.00 52 1012.9
20260508154206 68 189 4.0 10.0 0.00 0.00 0.00 52 1012.9
20260508154107 68 183 4.0 10.0 0.00 0.00 0.00 53 1012.9
20260508154007 68 191 4.0 10.0 0.00 0.00 0.00 53 1012.9
20260508153906 68 198 5.0 10.0 0.00 0.00 0.00 52 1012.9
20260508153806 68 196 5.0 10.0 0.00 0.00 0.00 52 1012.8
20260508153705 68 193 5.0 11.0 0.00 0.00 0.00 51 1012.9
20260508153606 69 191 5.0 13.0 0.00 0.00 0.00 52 1012.8
20260508153505 69 189 5.0 13.0 0.00 0.00 0.00 53 1012.8
20260508153412 69 190 6.0 13.0 0.00 0.00 0.00 53 1012.8
20260508153305 68 190 6.0 13.0 0.00 0.00 0.00 53 1012.9
20260508153206 68 187 6.0 13.0 0.00 0.00 0.00 53 1012.7
20260508153105 68 190 6.0 13.0 0.00 0.00 0.00 52 1012.8
20260508153006 68 187 6.0 13.0 0.00 0.00 0.00 52 1012.8
20260508152906 68 182 6.0 13.0 0.00 0.00 0.00 53 1012.8
20260508152806 68 186 6.0 13.0 0.00 0.00 0.00 52 1012.8
20260508152705 68 188 6.0 13.0 0.00 0.00 0.00 53 1012.9
20260508152606 68 190 6.0 13.0 0.00 0.00 0.00 54 1012.9
20260508152414 68 195 6.0 13.0 0.00 0.00 0.00 55 1012.8
20260508152306 68 196 6.0 13.0 0.00 0.00 0.00 56 1012.8
20260508152206 68 198 6.0 13.0 0.00 0.00 0.00 56 1012.9
20260508152006 68 196 5.0 13.0 0.00 0.00 0.00 54 1012.8
20260508151806 68 192 5.0 11.0 0.00 0.00 0.00 55 1012.8
20260508151707 68 190 5.0 12.0 0.00 0.00 0.00 53 1012.7
20260508151605 69 190 5.0 12.0 0.00 0.00 0.00 54 1012.7
20260508151506 69 192 5.0 12.0 0.00 0.00 0.00 54 1012.7
20260508151415 69 191 5.0 12.0 0.00 0.00 0.00 55 1012.7
20260508151306 68 189 6.0 12.0 0.00 0.00 0.00 55 1012.8
20260508151205 68 185 6.0 12.0 0.00 0.00 0.00 56 1012.7
20260508151107 68 182 7.0 12.0 0.00 0.00 0.00 55 1012.9
20260508150906 68 179 8.0 12.0 0.00 0.00 0.00 55 1012.9
20260508150805 68 178 8.0 13.0 0.00 0.00 0.00 56 1012.8
20260508150711 68 174 8.0 15.0 0.00 0.00 0.00 56 1012.9
20260508150606 68 176 8.0 15.0 0.00 0.00 0.00 56 1012.8
20260508150405 67 174 9.0 15.0 0.00 0.00 0.00 58 1013.0
20260508150305 67 176 9.0 15.0 0.00 0.00 0.00 58 1013.0
20260508150205 67 178 9.0 15.0 0.00 0.00 0.00 57 1012.9
20260508150105 67 182 9.0 15.0 0.00 0.00 0.00 58 1013.0
20260508150006 67 182 9.0 15.0 0.00 0.00 0.00 58 1012.9
20260508145906 67 183 9.0 15.0 0.00 0.00 0.00 58 1012.9
20260508145806 67 186 8.0 15.0 0.00 0.00 0.00 58 1013.0
20260508145711 67 188 8.0 14.0 0.00 0.00 0.00 58 1012.9
20260508145606 67 188 8.0 14.0 0.00 0.00 0.00 59 1012.9
20260508145506 67 187 8.0 14.0 0.00 0.00 0.00 58 1012.9
20260508145405 67 185 7.0 13.0 0.00 0.00 0.00 58 1013.0
20260508145307 67 184 7.0 13.0 0.00 0.00 0.00 58 1012.9
20260508145206 67 187 7.0 13.0 0.00 0.00 0.00 58 1012.8
20260508145106 67 188 7.0 13.0 0.00 0.00 0.00 58 1012.9
20260508145007 67 192 7.0 13.0 0.00 0.00 0.00 58 1013.0
20260508144905 67 192 7.0 13.0 0.00 0.00 0.00 58 1012.9
20260508144806 67 192 7.0 13.0 0.00 0.00 0.00 57 1012.9
20260508144606 68 192 6.0 13.0 0.00 0.00 0.00 57 1013.0
20260508144506 68 195 6.0 13.0 0.00 0.00 0.00 57 1012.9
20260508144406 68 197 7.0 13.0 0.00 0.00 0.00 56 1013.0
20260508144306 68 196 6.0 13.0 0.00 0.00 0.00 55 1013.0
20260508144206 68 193 6.0 13.0 0.00 0.00 0.00 54 1012.9
20260508144105 68 192 6.0 13.0 0.00 0.00 0.00 54 1013.0
20260508144007 68 188 6.0 13.0 0.00 0.00 0.00 54 1013.0
20260508143713 68 187 7.0 14.0 0.00 0.00 0.00 54 1013.0
20260508143606 68 188 7.0 14.0 0.00 0.00 0.00 54 1013.0
20260508143506 68 186 7.0 14.0 0.00 0.00 0.00 54 1013.0
20260508143406 68 187 7.0 14.0 0.00 0.00 0.00 55 1013.1
20260508143305 68 192 7.0 14.0 0.00 0.00 0.00 55 1013.0
20260508143106 68 201 8.0 14.0 0.00 0.00 0.00 54 1013.0
20260508143006 68 205 8.0 14.0 0.00 0.00 0.00 54 1013.1
20260508142906 68 210 7.0 13.0 0.00 0.00 0.00 54 1013.1
20260508142806 69 214 7.0 13.0 0.00 0.00 0.00 54 1013.0
20260508142715 69 218 7.0 14.0 0.00 0.00 0.00 54 1013.0
20260508142605 68 222 8.0 14.0 0.00 0.00 0.00 54 1013.0
20260508142506 68 224 8.0 14.0 0.00 0.00 0.00 54 1013.1
20260508142405 68 225 8.0 14.0 0.00 0.00 0.00 54 1013.0
20260508142307 68 225 8.0 14.0 0.00 0.00 0.00 53 1013.0
20260508142206 68 226 7.0 14.0 0.00 0.00 0.00 55 1013.0
20260508142105 68 224 7.0 14.0 0.00 0.00 0.00 55 1013.0
20260508141806 68 219 7.0 14.0 0.00 0.00 0.00 54 1013.1
20260508141606 69 217 7.0 13.0 0.00 0.00 0.00 54 1013.0
20260508141512 69 215 7.0 13.0 0.00 0.00 0.00 54 1013.2
20260508141406 68 214 7.0 14.0 0.00 0.00 0.00 54 1013.0
20260508141106 68 215 8.0 14.0 0.00 0.00 0.00 54 1013.0
20260508141013 67 218 8.0 15.0 0.00 0.00 0.00 55 1013.1
20260508140807 67 219 9.0 15.0 0.00 0.00 0.00 55 1013.1
20260508140705 67 217 9.0 15.0 0.00 0.00 0.00 55 1013.1
20260508140606 67 218 9.0 15.0 0.00 0.00 0.00 55 1013.1
20260508140506 67 218 9.0 15.0 0.00 0.00 0.00 55 1013.2
20260508140407 67 218 8.0 15.0 0.00 0.00 0.00 55 1013.2
20260508140206 67 218 8.0 15.0 0.00 0.00 0.00 55 1013.2
20260508140105 67 217 8.0 15.0 0.00 0.00 0.00 55 1013.2
20260508135906 67 216 8.0 15.0 0.00 0.00 0.00 55 1013.2
20260508135806 67 215 8.0 15.0 0.00 0.00 0.00 55 1013.3
20260508135706 67 216 8.0 14.0 0.00 0.00 0.00 55 1013.2
20260508135605 67 216 8.0 14.0 0.00 0.00 0.00 55 1013.2
20260508135406 66 215 7.0 14.0 0.00 0.00 0.00 56 1013.4
20260508135311 66 213 7.0 14.0 0.00 0.00 0.00 56 1013.3
20260508135206 66 210 7.0 14.0 0.00 0.00 0.00 56 1013.4
20260508135107 66 208 6.0 14.0 0.00 0.00 0.00 57 1013.4
20260508135006 66 207 7.0 14.0 0.00 0.00 0.00 56 1013.4
20260508134905 66 203 6.0 13.0 0.00 0.00 0.00 58 1013.4
20260508134806 66 204 7.0 14.0 0.00 0.00 0.00 58 1013.4
20260508134706 66 202 7.0 14.0 0.00 0.00 0.00 58 1013.4
20260508134605 66 197 7.0 14.0 0.00 0.00 0.00 60 1013.5
20260508134506 66 197 7.0 14.0 0.00 0.00 0.00 60 1013.4
20260508134316 65 198 8.0 14.0 0.00 0.00 0.00 60 1013.5
20260508134206 65 197 8.0 14.0 0.00 0.00 0.00 60 1013.4
20260508134006 65 195 9.0 14.0 0.00 0.00 0.00 60 1013.5
20260508133905 65 196 9.0 14.0 0.00 0.00 0.00 60 1013.5
20260508133806 65 194 8.0 14.0 0.00 0.00 0.00 60 1013.5
20260508133707 65 195 9.0 14.0 0.00 0.00 0.00 60 1013.5
20260508133611 65 196 9.0 14.0 0.00 0.00 0.00 60 1013.6
20260508133406 65 197 9.0 14.0 0.00 0.00 0.00 60 1013.6
20260508133305 65 198 9.0 14.0 0.00 0.00 0.00 60 1013.6
20260508133206 65 199 9.0 14.0 0.00 0.00 0.00 60 1013.5
20260508133105 65 199 8.0 18.0 0.00 0.00 0.00 60 1013.5
20260508133006 65 200 9.0 18.0 0.00 0.00 0.00 60 1013.6
20260508132807 65 201 10.0 18.0 0.00 0.00 0.00 60 1013.6
20260508132705 65 200 10.0 18.0 0.00 0.00 0.00 59 1013.5
20260508132506 65 199 10.0 18.0 0.00 0.00 0.00 59 1013.6
20260508132406 65 198 10.0 18.0 0.00 0.00 0.00 59 1013.6
20260508132306 65 198 10.0 18.0 0.00 0.00 0.00 59 1013.6
20260508132206 65 198 10.0 18.0 0.00 0.00 0.00 59 1013.7
20260508132105 65 197 10.0 18.0 0.00 0.00 0.00 59 1013.5
20260508132007 65 196 10.0 18.0 0.00 0.00 0.00 59 1013.6
20260508131911 66 194 10.0 17.0 0.00 0.00 0.00 59 1013.6
20260508131806 66 194 10.0 17.0 0.00 0.00 0.00 59 1013.5
20260508131705 66 193 9.0 17.0 0.00 0.00 0.00 59 1013.6
20260508131506 66 189 8.0 15.0 0.00 0.00 0.00 60 1013.6
20260508131406 66 189 8.0 15.0 0.00 0.00 0.00 59 1013.6
20260508131306 66 189 8.0 15.0 0.00 0.00 0.00 60 1013.6
20260508131205 66 190 8.0 15.0 0.00 0.00 0.00 60 1013.6
20260508131105 66 193 8.0 15.0 0.00 0.00 0.00 60 1013.5
20260508130913 66 195 7.0 13.0 0.00 0.00 0.00 60 1013.5
20260508130807 67 195 7.0 15.0 0.00 0.00 0.00 60 1013.5
20260508130706 67 196 7.0 15.0 0.00 0.00 0.00 59 1013.5
20260508130605 67 197 7.0 15.0 0.00 0.00 0.00 59 1013.5
20260508130506 67 199 7.0 15.0 0.00 0.00 0.00 59 1013.5
20260508130413 67 198 7.0 15.0 0.00 0.00 0.00 59 1013.5
20260508130306 67 198 7.0 15.0 0.00 0.00 0.00 59 1013.3
20260508130208 67 196 7.0 15.0 0.00 0.00 0.00 58 1013.5
20260508130106 67 195 7.0 15.0 0.00 0.00 0.00 58 1013.4
20260508130006 67 195 7.0 15.0 0.00 0.00 0.00 57 1013.5
20260508125915 67 194 8.0 15.0 0.00 0.00 0.00 57 1013.5
20260508125805 67 194 8.0 15.0 0.00 0.00 0.00 57 1013.4
20260508125606 67 197 8.0 15.0 0.00 0.00 0.00 58 1013.5
20260508125505 67 199 8.0 15.0 0.00 0.00 0.00 58 1013.5
20260508125406 67 200 8.0 15.0 0.00 0.00 0.00 58 1013.6
20260508125306 67 199 9.0 15.0 0.00 0.00 0.00 57 1013.5
20260508125210 67 199 8.0 13.0 0.00 0.00 0.00 57 1013.6
20260508125006 67 199 8.0 15.0 0.00 0.00 0.00 57 1013.5
20260508124806 67 203 8.0 15.0 0.00 0.00 0.00 57 1013.6
20260508124607 67 203 8.0 15.0 0.00 0.00 0.00 59 1013.5
20260508124507 67 203 8.0 15.0 0.00 0.00 0.00 58 1013.5
20260508124306 67 202 8.0 15.0 0.00 0.00 0.00 59 1013.5
20260508124207 67 200 8.0 15.0 0.00 0.00 0.00 59 1013.5
20260508123915 67 196 7.0 14.0 0.00 0.00 0.00 59 1013.6
20260508123605 67 192 6.0 13.0 0.00 0.00 0.00 60 1013.5
20260508123506 67 189 6.0 13.0 0.00 0.00 0.00 59 1013.6
20260508123406 67 188 5.0 12.0 0.00 0.00 0.00 60 1013.5
20260508123307 67 189 5.0 11.0 0.00 0.00 0.00 60 1013.6
20260508123106 67 181 4.0 11.0 0.00 0.00 0.00 59 1013.7
20260508123006 67 181 4.0 11.0 0.00 0.00 0.00 59 1013.7
20260508122914 67 177 3.0 8.0 0.00 0.00 0.00 59 1013.6
20260508122806 68 166 3.0 7.0 0.00 0.00 0.00 59 1013.6
20260508122706 68 152 2.0 7.0 0.00 0.00 0.00 58 1013.6
20260508122606 68 131 2.0 6.0 0.00 0.00 0.00 60 1013.7
20260508122506 68 119 2.0 6.0 0.00 0.00 0.00 60 1013.7
20260508122406 67 124 2.0 6.0 0.00 0.00 0.00 61 1013.6
20260508122307 67 120 2.0 6.0 0.00 0.00 0.00 60 1013.6
20260508122206 67 122 2.0 6.0 0.00 0.00 0.00 60 1013.7
20260508122006 67 117 2.0 5.0 0.00 0.00 0.00 61 1013.6
20260508121912 67 115 2.0 5.0 0.00 0.00 0.00 60 1013.6
20260508121806 67 111 2.0 5.0 0.00 0.00 0.00 60 1013.7
20260508121706 67 109 2.0 5.0 0.00 0.00 0.00 61 1013.6
20260508121622 67 109 2.0 5.0 0.00 0.00 0.00 61 1013.7
20260508121506 67 107 2.0 5.0 0.00 0.00 0.00 61 1013.7
20260508121406 67 102 2.0 5.0 0.00 0.00 0.00 61 1013.6
20260508121306 67 98 2.0 4.0 0.00 0.00 0.00 61 1013.7
20260508121206 67 97 2.0 4.0 0.00 0.00 0.00 60 1013.6
20260508121105 67 101 2.0 4.0 0.00 0.00 0.00 60 1013.6
20260508120913 67 106 2.0 4.0 0.00 0.00 0.00 60 1013.6
20260508120806 67 105 1.0 4.0 0.00 0.00 0.00 60 1013.7
20260508120706 67 109 1.0 4.0 0.00 0.00 0.00 59 1013.7
20260508120605 67 104 1.0 4.0 0.00 0.00 0.00 60 1013.6
20260508120507 67 98 1.0 4.0 0.00 0.00 0.00 60 1013.6
20260508120406 67 94 1.0 4.0 0.00 0.00 0.00 61 1013.6
20260508120206 67 85 1.0 4.0 0.00 0.00 0.00 61 1013.6
20260508120106 67 89 2.0 5.0 0.00 0.00 0.00 61 1013.6
20260508120006 67 90 2.0 5.0 0.00 0.00 0.00 61 1013.6
20260508115916 67 89 1.0 5.0 0.00 0.00 0.00 61 1013.7
20260508115806 67 83 2.0 5.0 0.00 0.00 0.00 61 1013.6
20260508115705 67 75 2.0 5.0 0.00 0.00 0.00 61 1013.7
20260508115506 67 74 2.0 5.0 0.00 0.00 0.00 62 1013.6
20260508115406 67 77 2.0 5.0 0.00 0.00 0.00 62 1013.7
20260508115306 67 73 2.0 5.0 0.00 0.00 0.00 62 1013.8
20260508115212 67 80 2.0 5.0 0.00 0.00 0.00 63 1013.8
20260508115006 66 79 2.0 4.0 0.00 0.00 0.00 63 1013.7
20260508114905 66 75 2.0 4.0 0.00 0.00 0.00 63 1013.8
20260508114806 66 81 2.0 4.0 0.00 0.00 0.00 62 1013.8
20260508114705 66 84 2.0 4.0 0.00 0.00 0.00 62 1013.8
20260508114606 66 83 2.0 4.0 0.00 0.00 0.00 62 1013.8
20260508114506 66 83 1.0 4.0 0.00 0.00 0.00 63 1013.9
20260508114405 66 82 1.0 4.0 0.00 0.00 0.00 63 1013.8
20260508114306 66 87 1.0 4.0 0.00 0.00 0.00 63 1013.8
20260508114216 66 85 1.0 4.0 0.00 0.00 0.00 62 1013.8
20260508114006 66 80 1.0 4.0 0.00 0.00 0.00 62 1013.8
20260508113806 67 94 1.0 4.0 0.00 0.00 0.00 61 1013.8
20260508113605 67 119 1.0 4.0 0.00 0.00 0.00 61 1013.7
20260508113513 67 119 1.0 4.0 0.00 0.00 0.00 62 1013.7
20260508113406 67 120 1.0 4.0 0.00 0.00 0.00 62 1013.7
20260508113306 67 118 1.0 4.0 0.00 0.00 0.00 62 1013.9
20260508113205 66 126 1.0 4.0 0.00 0.00 0.00 62 1013.9
20260508113105 66 131 1.0 4.0 0.00 0.00 0.00 62 1013.9
20260508112906 66 68 1.0 4.0 0.00 0.00 0.00 62 1013.9
20260508112806 66 31 1.0 4.0 0.00 0.00 0.00 62 1014.0
20260508112706 66 4 1.0 4.0 0.00 0.00 0.00 62 1013.8
20260508112607 67 348 1.0 4.0 0.00 0.00 0.00 62 1013.9
20260508112513 67 347 1.0 4.0 0.00 0.00 0.00 62 1013.9
20260508112406 66 356 1.0 4.0 0.00 0.00 0.00 63 1013.9
20260508112307 66 6 1.0 4.0 0.00 0.00 0.00 63 1014.0
20260508112206 66 13 1.0 4.0 0.00 0.00 0.00 63 1014.0
20260508112106 66 52 1.0 4.0 0.00 0.00 0.00 62 1014.0
20260508111905 66 140 1.0 4.0 0.00 0.00 0.00 62 1014.0
20260508111705 66 148 1.0 4.0 0.00 0.00 0.00 62 1014.0
20260508111607 66 131 1.0 4.0 0.00 0.00 0.00 62 1014.1
20260508111516 66 118 1.0 4.0 0.00 0.00 0.00 62 1014.0
20260508111406 66 104 1.0 4.0 0.00 0.00 0.00 62 1014.0
20260508111305 66 77 1.0 4.0 0.00 0.00 0.00 63 1014.0
20260508111205 66 68 1.0 4.0 0.00 0.00 0.00 63 1014.1
20260508111106 66 63 1.0 4.0 0.00 0.00 0.00 63 1014.1
20260508111006 66 58 1.0 3.0 0.00 0.00 0.00 62 1013.9
20260508110906 66 63 1.0 3.0 0.00 0.00 0.00 63 1014.1
20260508110706 66 101 1.0 5.0 0.00 0.00 0.00 63 1014.1
20260508110606 65 106 1.0 5.0 0.00 0.00 0.00 63 1014.2
20260508110515 65 103 1.0 5.0 0.00 0.00 0.00 64 1014.1
20260508110405 65 105 1.0 5.0 0.00 0.00 0.00 64 1014.1
20260508110306 65 108 1.0 5.0 0.00 0.00 0.00 64 1014.1
20260508110006 65 125 2.0 5.0 0.00 0.00 0.00 64 1014.2
20260508105905 65 125 1.0 5.0 0.00 0.00 0.00 63 1014.2
20260508105812 65 126 1.0 5.0 0.00 0.00 0.00 63 1014.2
20260508105706 65 127 1.0 4.0 0.00 0.00 0.00 63 1014.2
20260508105605 65 129 1.0 3.0 0.00 0.00 0.00 64 1014.2
20260508105506 65 135 1.0 3.0 0.00 0.00 0.00 64 1014.3
20260508105406 65 129 1.0 3.0 0.00 0.00 0.00 64 1014.3
20260508105306 65 121 1.0 3.0 0.00 0.00 0.00 64 1014.3
20260508105106 65 90 1.0 3.0 0.00 0.00 0.00 63 1014.4
20260508105006 65 80 1.0 3.0 0.00 0.00 0.00 63 1014.3
20260508104906 65 82 1.0 5.0 0.00 0.00 0.00 64 1014.3
20260508104812 65 75 1.0 5.0 0.00 0.00 0.00 65 1014.4
20260508104707 65 78 1.0 5.0 0.00 0.00 0.00 65 1014.4
20260508104605 65 79 1.0 5.0 0.00 0.00 0.00 65 1014.4
20260508104506 65 77 1.0 5.0 0.00 0.00 0.00 64 1014.3
20260508104406 65 90 1.0 5.0 0.00 0.00 0.00 64 1014.4
20260508104306 65 90 1.0 5.0 0.00 0.00 0.00 65 1014.4
20260508104206 65 91 1.0 5.0 0.00 0.00 0.00 63 1014.4
20260508104105 65 97 1.0 5.0 0.00 0.00 0.00 64 1014.4
20260508104006 65 106 1.0 5.0 0.00 0.00 0.00 64 1014.3
20260508103906 65 120 1.0 3.0 0.00 0.00 0.00 64 1014.3
20260508103814 65 122 1.0 3.0 0.00 0.00 0.00 64 1014.4
20260508103706 65 127 1.0 3.0 0.00 0.00 0.00 64 1014.4
20260508103606 65 123 1.0 3.0 0.00 0.00 0.00 64 1014.4
20260508103407 65 105 1.0 4.0 0.00 0.00 0.00 65 1014.4
20260508103305 65 98 1.0 4.0 0.00 0.00 0.00 65 1014.4
20260508103206 65 104 2.0 4.0 0.00 0.00 0.00 65 1014.4
20260508103106 65 101 2.0 4.0 0.00 0.00 0.00 65 1014.4
20260508103006 65 111 2.0 4.0 0.00 0.00 0.00 64 1014.4
20260508102905 65 122 2.0 4.0 0.00 0.00 0.00 65 1014.4
20260508102814 65 131 2.0 4.0 0.00 0.00 0.00 65 1014.4
20260508102606 64 125 2.0 4.0 0.00 0.00 0.00 65 1014.5
20260508102506 64 126 2.0 4.0 0.00 0.00 0.00 65 1014.4
20260508102405 64 130 2.0 4.0 0.00 0.00 0.00 65 1014.5
20260508102307 64 131 2.0 5.0 0.00 0.00 0.00 65 1014.4
20260508102205 64 129 2.0 5.0 0.00 0.00 0.00 65 1014.5
20260508102110 64 132 2.0 5.0 0.00 0.00 0.00 65 1014.6
20260508101907 64 112 2.0 5.0 0.00 0.00 0.00 65 1014.6
20260508101705 64 79 2.0 5.0 0.00 0.00 0.00 65 1014.6
20260508101606 64 73 1.0 5.0 0.00 0.00 0.00 65 1014.5
20260508101513 64 81 2.0 6.0 0.00 0.00 0.00 65 1014.5
20260508101405 64 64 2.0 6.0 0.00 0.00 0.00 65 1014.5
20260508101306 64 70 2.0 6.0 0.00 0.00 0.00 65 1014.7
20260508101206 64 81 2.0 6.0 0.00 0.00 0.00 65 1014.5
20260508101114 64 86 2.0 6.0 0.00 0.00 0.00 65 1014.5
20260508100805 64 94 2.0 6.0 0.00 0.00 0.00 66 1014.6
20260508100705 64 92 2.0 6.0 0.00 0.00 0.00 66 1014.5
20260508100606 64 91 2.0 6.0 0.00 0.00 0.00 65 1014.5
20260508100506 64 91 2.0 5.0 0.00 0.00 0.00 65 1014.5
20260508100411 64 91 2.0 5.0 0.00 0.00 0.00 65 1014.4
20260508100306 64 90 2.0 5.0 0.00 0.00 0.00 65 1014.5
20260508100205 64 86 1.0 4.0 0.00 0.00 0.00 65 1014.5
20260508100105 64 77 1.0 4.0 0.00 0.00 0.00 65 1014.4
20260508100006 64 75 1.0 4.0 0.00 0.00 0.00 65 1014.5
20260508095905 64 73 1.0 4.0 0.00 0.00 0.00 65 1014.5
20260508095805 64 74 1.0 4.0 0.00 0.00 0.00 65 1014.5
20260508095706 64 81 1.0 4.0 0.00 0.00 0.00 66 1014.5
20260508095605 64 86 2.0 4.0 0.00 0.00 0.00 66 1014.4
20260508095415 64 91 2.0 4.0 0.00 0.00 0.00 65 1014.5
20260508095307 64 94 2.0 4.0 0.00 0.00 0.00 65 1014.4
20260508095205 64 92 2.0 4.0 0.00 0.00 0.00 65 1014.5
20260508095105 64 98 2.0 4.0 0.00 0.00 0.00 65 1014.4
20260508095006 64 100 2.0 4.0 0.00 0.00 0.00 65 1014.4
20260508094906 64 100 2.0 4.0 0.00 0.00 0.00 65 1014.3
20260508094806 64 94 2.0 4.0 0.00 0.00 0.00 65 1014.5
20260508094711 64 93 2.0 4.0 0.00 0.00 0.00 65 1014.4
20260508094606 64 91 2.0 4.0 0.00 0.00 0.00 65 1014.4
20260508094506 64 94 2.0 5.0 0.00 0.00 0.00 65 1014.5
20260508094405 64 96 2.0 5.0 0.00 0.00 0.00 65 1014.4
20260508094305 64 98 2.0 5.0 0.00 0.00 0.00 65 1014.5
20260508094206 64 100 2.0 5.0 0.00 0.00 0.00 65 1014.4
20260508094105 64 99 2.0 5.0 0.00 0.00 0.00 64 1014.4
20260508094006 64 95 2.0 5.0 0.00 0.00 0.00 65 1014.4
20260508093806 63 99 2.0 5.0 0.00 0.00 0.00 65 1014.5
20260508093715 63 98 2.0 5.0 0.00 0.00 0.00 65 1014.5
20260508093305 63 92 2.0 5.0 0.00 0.00 0.00 66 1014.4
20260508093106 63 97 2.0 5.0 0.00 0.00 0.00 65 1014.5
20260508093011 63 102 2.0 5.0 0.00 0.00 0.00 66 1014.4
20260508092906 63 104 2.0 5.0 0.00 0.00 0.00 66 1014.5
20260508092805 63 102 2.0 5.0 0.00 0.00 0.00 66 1014.5
20260508092705 63 101 2.0 5.0 0.00 0.00 0.00 66 1014.5
20260508092606 63 101 2.0 5.0 0.00 0.00 0.00 67 1014.4
20260508092505 63 104 2.0 5.0 0.00 0.00 0.00 67 1014.5
20260508092312 63 105 2.0 5.0 0.00 0.00 0.00 67 1014.6
20260508092205 63 101 2.0 5.0 0.00 0.00 0.00 68 1014.5
20260508092106 63 97 2.0 5.0 0.00 0.00 0.00 68 1014.4
20260508092013 63 96 2.0 5.0 0.00 0.00 0.00 68 1014.6
20260508091906 63 99 2.0 5.0 0.00 0.00 0.00 67 1014.6
20260508091805 63 99 2.0 5.0 0.00 0.00 0.00 68 1014.6
20260508091706 63 99 2.0 5.0 0.00 0.00 0.00 68 1014.5
20260508091605 63 101 2.0 5.0 0.00 0.00 0.00 68 1014.7
20260508091406 63 109 2.0 5.0 0.00 0.00 0.00 68 1014.6
20260508091205 63 108 2.0 6.0 0.00 0.00 0.00 68 1014.6
20260508091106 63 112 2.0 6.0 0.00 0.00 0.00 67 1014.7
20260508091006 63 116 2.0 6.0 0.00 0.00 0.00 67 1014.6
20260508090905 63 109 2.0 6.0 0.00 0.00 0.00 67 1014.6
20260508090806 63 112 1.0 6.0 0.00 0.00 0.00 67 1014.6
20260508090706 63 106 1.0 6.0 0.00 0.00 0.00 67 1014.6
20260508090605 63 86 1.0 6.0 0.00 0.00 0.00 67 1014.5
20260508090506 63 72 2.0 6.0 0.00 0.00 0.00 67 1014.5
20260508090313 63 86 1.0 4.0 0.00 0.00 0.00 67 1014.4
20260508090106 63 72 1.0 4.0 0.00 0.00 0.00 68 1014.4
20260508085906 63 81 2.0 4.0 0.00 0.00 0.00 68 1014.4
20260508085807 63 86 2.0 4.0 0.00 0.00 0.00 68 1014.5
20260508085705 62 94 2.0 5.0 0.00 0.00 0.00 69 1014.4
20260508085611 62 100 2.0 5.0 0.00 0.00 0.00 68 1014.5
20260508085506 62 105 2.0 5.0 0.00 0.00 0.00 68 1014.6
20260508085406 62 104 2.0 5.0 0.00 0.00 0.00 69 1014.6
20260508085307 62 105 2.0 5.0 0.00 0.00 0.00 69 1014.6
20260508085105 62 107 2.0 5.0 0.00 0.00 0.00 68 1014.6
20260508085005 62 110 2.0 5.0 0.00 0.00 0.00 68 1014.6
20260508084906 62 105 2.0 5.0 0.00 0.00 0.00 68 1014.6
20260508084805 62 101 2.0 5.0 0.00 0.00 0.00 67 1014.5
20260508084706 63 99 2.0 5.0 0.00 0.00 0.00 67 1014.4
20260508084406 62 93 2.0 5.0 0.00 0.00 0.00 68 1014.6
20260508084305 62 94 3.0 6.0 0.00 0.00 0.00 68 1014.6
20260508084206 62 94 3.0 6.0 0.00 0.00 0.00 68 1014.6
20260508084107 62 96 3.0 6.0 0.00 0.00 0.00 68 1014.6
20260508083914 62 96 3.0 6.0 0.00 0.00 0.00 68 1014.5
20260508083605 62 99 2.0 6.0 0.00 0.00 0.00 68 1014.6
20260508083406 62 99 2.0 6.0 0.00 0.00 0.00 68 1014.5
20260508083306 62 99 2.0 4.0 0.00 0.00 0.00 68 1014.5
20260508083212 62 100 1.0 4.0 0.00 0.00 0.00 68 1014.5
20260508083105 62 99 1.0 4.0 0.00 0.00 0.00 67 1014.6
20260508083006 62 105 1.0 4.0 0.00 0.00 0.00 68 1014.5
20260508082906 62 120 1.0 3.0 0.00 0.00 0.00 68 1014.5
20260508082606 62 140 1.0 3.0 0.00 0.00 0.00 68 1014.4
20260508082506 62 149 1.0 3.0 0.00 0.00 0.00 68 1014.4
20260508082306 62 153 1.0 3.0 0.00 0.00 0.00 68 1014.5
20260508082213 62 153 1.0 3.0 0.00 0.00 0.00 68 1014.4
20260508082105 62 154 1.0 3.0 0.00 0.00 0.00 67 1014.5
20260508082006 62 158 1.0 3.0 0.00 0.00 0.00 68 1014.5
20260508081906 62 164 1.0 3.0 0.00 0.00 0.00 68 1014.5
20260508081806 62 163 1.0 3.0 0.00 0.00 0.00 68 1014.4
20260508081606 62 160 1.0 3.0 0.00 0.00 0.00 67 1014.5
20260508081510 62 157 1.0 3.0 0.00 0.00 0.00 67 1014.5
20260508081406 61 156 1.0 3.0 0.00 0.00 0.00 67 1014.5
20260508081305 62 149 1.0 4.0 0.00 0.00 0.00 67 1014.4
20260508081105 62 150 1.0 4.0 0.00 0.00 0.00 66 1014.4
20260508081006 62 150 2.0 4.0 0.00 0.00 0.00 67 1014.4
20260508080706 62 148 1.0 4.0 0.00 0.00 0.00 67 1014.4
20260508080514 62 148 1.0 4.0 0.00 0.00 0.00 66 1014.4
20260508080406 62 146 1.0 4.0 0.00 0.00 0.00 65 1014.4
20260508080305 62 151 1.0 4.0 0.00 0.00 0.00 66 1014.4
20260508080205 62 157 1.0 3.0 0.00 0.00 0.00 66 1014.5
20260508080106 62 153 1.0 3.0 0.00 0.00 0.00 66 1014.4
20260508080005 62 147 1.0 3.0 0.00 0.00 0.00 66 1014.4
20260508075607 62 151 1.0 3.0 0.00 0.00 0.00 66 1014.4
20260508075506 62 157 1.0 3.0 0.00 0.00 0.00 67 1014.3
20260508075405 62 172 1.0 3.0 0.00 0.00 0.00 67 1014.4
20260508075308 62 137 1.0 3.0 0.00 0.00 0.00 67 1014.3
20260508075206 61 69 1.0 2.0 0.00 0.00 0.00 68 1014.4
20260508074905 62 307 0.0 2.0 0.00 0.00 0.00 69 1014.4
20260508074815 61 257 0.0 2.0 0.00 0.00 0.00 69 1014.4
20260508074705 61 197 1.0 3.0 0.00 0.00 0.00 69 1014.4
20260508074506 61 182 1.0 3.0 0.00 0.00 0.00 69 1014.4
20260508074305 61 181 1.0 3.0 0.00 0.00 0.00 70 1014.4
20260508074205 61 181 1.0 3.0 0.00 0.00 0.00 69 1014.4
20260508074112 61 181 1.0 3.0 0.00 0.00 0.00 69 1014.4
20260508074005 61 179 1.0 3.0 0.00 0.00 0.00 69 1014.4
20260508073906 61 178 1.0 3.0 0.00 0.00 0.00 68 1014.4
20260508073806 61 177 1.0 3.0 0.00 0.00 0.00 68 1014.3
20260508073705 61 174 1.0 3.0 0.00 0.00 0.00 68 1014.3
20260508073506 61 179 1.0 2.0 0.00 0.00 0.00 68 1014.3
20260508073406 61 209 1.0 2.0 0.00 0.00 0.00 69 1014.3
20260508073305 61 208 1.0 2.0 0.00 0.00 0.00 69 1014.3
20260508073206 61 208 1.0 1.0 0.00 0.00 0.00 69 1014.3
20260508073106 61 208 1.0 1.0 0.00 0.00 0.00 69 1014.3
20260508070304 61 206 1.0 5.0 0.00 0.00 0.00 68 1014.3
20260508070204 61 197 1.0 5.0 0.00 0.00 0.00 68 1014.3
20260508070104 61 191 1.0 5.0 0.00 0.00 0.00 68 1014.3
20260508065905 61 150 1.0 5.0 0.00 0.00 0.00 68 1014.4
20260508065804 61 82 1.0 4.0 0.00 0.00 0.00 68 1014.4
20260508065704 61 72 1.0 3.0 0.00 0.00 0.00 68 1014.3
20260508065609 61 76 1.0 3.0 0.00 0.00 0.00 68 1014.3
20260508065505 61 87 1.0 3.0 0.00 0.00 0.00 69 1014.3
20260508065404 61 104 1.0 3.0 0.00 0.00 0.00 70 1014.3
20260508065316 60 99 1.0 3.0 0.00 0.00 0.00 70 1014.4
20260508065204 60 99 1.0 3.0 0.00 0.00 0.00 70 1014.4
20260508065105 60 97 1.0 3.0 0.00 0.00 0.00 70 1014.4
20260508065004 60 150 1.0 3.0 0.00 0.00 0.00 70 1014.4
20260508064904 60 209 1.0 3.0 0.00 0.00 0.00 70 1014.5
20260508064804 60 215 0.0 2.0 0.00 0.00 0.00 70 1014.4
20260508064704 60 220 0.0 2.0 0.00 0.00 0.00 70 1014.4
20260508064604 60 225 0.0 2.0 0.00 0.00 0.00 70 1014.4
20260508064505 60 237 0.0 2.0 0.00 0.00 0.00 71 1014.4
20260508064404 60 263 0.0 2.0 0.00 0.00 0.00 71 1014.5
20260508064309 60 259 0.0 2.0 0.00 0.00 0.00 71 1014.4
20260508064204 60 273 0.0 2.0 0.00 0.00 0.00 72 1014.4
20260508064105 60 322 0.0 2.0 0.00 0.00 0.00 72 1014.5
20260508064015 59 350 0.0 3.0 0.00 0.00 0.00 73 1014.4
20260508063904 59 351 0.0 3.0 0.00 0.00 0.00 73 1014.4
20260508063804 59 345 1.0 3.0 0.00 0.00 0.00 73 1014.4
20260508063704 59 341 1.0 3.0 0.00 0.00 0.00 73 1014.4
20260508063604 59 338 1.0 3.0 0.00 0.00 0.00 73 1014.3
20260508063504 59 336 1.0 3.0 0.00 0.00 0.00 73 1014.3
20260508063404 58 333 1.0 3.0 0.00 0.00 0.00 73 1014.3
20260508063304 58 330 1.0 3.0 0.00 0.00 0.00 73 1014.4
20260508063204 59 326 1.0 3.0 0.00 0.00 0.00 73 1014.3
20260508063104 59 319 1.0 3.0 0.00 0.00 0.00 73 1014.3
20260508063004 58 311 1.0 3.0 0.00 0.00 0.00 74 1014.3
20260508062904 58 304 1.0 3.0 0.00 0.00 0.00 74 1014.4
20260508062710 58 306 1.0 3.0 0.00 0.00 0.00 75 1014.3
20260508062604 58 310 1.0 3.0 0.00 0.00 0.00 75 1014.4
20260508062415 58 312 2.0 4.0 0.00 0.00 0.00 76 1014.2
20260508062204 58 307 2.0 5.0 0.00 0.00 0.00 76 1014.3
20260508062104 58 308 2.0 5.0 0.00 0.00 0.00 75 1014.2
20260508061804 57 301 3.0 6.0 0.00 0.00 0.00 77 1014.3
20260508061704 57 297 3.0 6.0 0.00 0.00 0.00 77 1014.3
20260508061604 57 294 3.0 6.0 0.00 0.00 0.00 77 1014.2
20260508061504 57 293 3.0 6.0 0.00 0.00 0.00 77 1014.2
20260508061304 57 286 3.0 7.0 0.00 0.00 0.00 77 1014.2
20260508061116 57 279 3.0 7.0 0.00 0.00 0.00 77 1014.1
20260508061005 57 279 3.0 7.0 0.00 0.00 0.00 77 1014.1
20260508060904 57 277 3.0 7.0 0.00 0.00 0.00 77 1014.2
20260508060804 57 273 3.0 7.0 0.00 0.00 0.00 77 1014.1
20260508060704 57 265 3.0 7.0 0.00 0.00 0.00 77 1014.0
20260508060603 57 256 3.0 7.0 0.00 0.00 0.00 78 1014.1
20260508060404 56 243 4.0 7.0 0.00 0.00 0.00 78 1014.0
20260508060304 56 236 4.0 8.0 0.00 0.00 0.00 78 1014.0
20260508060204 56 232 4.0 9.0 0.00 0.00 0.00 78 1014.1
20260508060111 56 226 4.0 9.0 0.00 0.00 0.00 78 1014.0
20260508060005 56 222 4.0 9.0 0.00 0.00 0.00 78 1014.1
20260508055904 56 219 4.0 9.0 0.00 0.00 0.00 78 1014.1
20260508055816 56 217 5.0 9.0 0.00 0.00 0.00 78 1014.0
20260508055704 56 216 4.0 9.0 0.00 0.00 0.00 78 1014.0
20260508055605 56 213 4.0 9.0 0.00 0.00 0.00 79 1014.1
20260508055505 56 212 4.0 9.0 0.00 0.00 0.00 78 1014.0
20260508055404 56 210 4.0 9.0 0.00 0.00 0.00 78 1013.9
20260508055306 56 209 4.0 9.0 0.00 0.00 0.00 79 1014.0
20260508055203 56 207 5.0 8.0 0.00 0.00 0.00 79 1014.0
20260508055105 56 205 5.0 8.0 0.00 0.00 0.00 79 1014.0
20260508054904 56 205 5.0 8.0 0.00 0.00 0.00 79 1014.0
20260508054810 56 204 5.0 8.0 0.00 0.00 0.00 79 1013.9
20260508054704 56 202 5.0 8.0 0.00 0.00 0.00 79 1013.9
20260508054604 56 201 5.0 8.0 0.00 0.00 0.00 79 1014.0
20260508054514 56 202 5.0 8.0 0.00 0.00 0.00 79 1013.8
20260508054404 56 200 5.0 8.0 0.00 0.00 0.00 79 1013.9
20260508054304 56 198 5.0 8.0 0.00 0.00 0.00 79 1013.8
20260508054204 56 198 5.0 8.0 0.00 0.00 0.00 79 1013.9
20260508054104 56 198 5.0 8.0 0.00 0.00 0.00 79 1013.9
20260508054004 56 197 5.0 8.0 0.00 0.00 0.00 79 1013.9
20260508053904 56 197 5.0 8.0 0.00 0.00 0.00 79 1013.8
20260508053805 55 198 5.0 8.0 0.00 0.00 0.00 79 1013.9
20260508053705 55 199 4.0 8.0 0.00 0.00 0.00 79 1014.0
20260508053604 55 199 4.0 8.0 0.00 0.00 0.00 80 1014.0
20260508053509 55 199 4.0 8.0 0.00 0.00 0.00 80 1014.0
20260508053404 55 202 4.0 8.0 0.00 0.00 0.00 80 1014.0
20260508053304 55 205 4.0 8.0 0.00 0.00 0.00 80 1014.0
20260508053214 55 206 3.0 8.0 0.00 0.00 0.00 80 1014.0
20260508053104 55 208 3.0 8.0 0.00 0.00 0.00 80 1014.0
20260508053004 55 211 3.0 8.0 0.00 0.00 0.00 80 1014.0
20260508052904 55 213 3.0 7.0 0.00 0.00 0.00 81 1014.0
20260508052703 55 216 3.0 8.0 0.00 0.00 0.00 81 1014.0
20260508052604 55 216 3.0 8.0 0.00 0.00 0.00 81 1014.0
20260508052504 55 215 3.0 8.0 0.00 0.00 0.00 82 1014.1
20260508052404 55 214 3.0 8.0 0.00 0.00 0.00 82 1014.0
20260508052203 54 213 4.0 8.0 0.00 0.00 0.00 82 1014.0
20260508052104 54 211 4.0 8.0 0.00 0.00 0.00 82 1014.0
20260508052004 54 209 4.0 8.0 0.00 0.00 0.00 82 1014.0